<?xml version="1.0" encoding="UTF-8" standalone="no" ?>
<gpx xmlns="http://www.topografix.com/GPX/1/1" xmlns:xsi="http://www.w3.org/2001/XMLSchema-instance" xsi:schemaLocation="http://www.topografix.com/GPX/1/1 http://www.topografix.com/GPX/1/1/gpx.xsd" version="1.1" creator="VisuGPX - https://www.visugpx.com">
  <metadata>
    <name>AVEYRONNAISE + ECHAP 1+2</name>
  </metadata>
  <trk>
    <name><![CDATA[MFranck]]></name>
    <extensions>
      <line xmlns="http://www.topografix.com/GPX/gpx_style/0/2">
        <color>0000FF</color>
        <width>4</width>
      </line>
    </extensions>
    <trkseg>
      <trkpt lat="44.33066" lon="2.59129">
        <ele>598</ele>
        <time>2001-01-01T00:00:00Z</time>
      </trkpt>
      <trkpt lat="44.33066" lon="2.5913">
        <ele>598</ele>
        <time>2001-01-01T00:00:00Z</time>
      </trkpt>
      <trkpt lat="44.3303" lon="2.59111">
        <ele>597</ele>
        <time>2001-01-01T00:00:00Z</time>
      </trkpt>
      <trkpt lat="44.33025" lon="2.59109">
        <ele>597</ele>
        <time>2001-01-01T00:00:00Z</time>
      </trkpt>
      <trkpt lat="44.33013" lon="2.59088">
        <ele>597</ele>
        <time>2001-01-01T00:00:00Z</time>
      </trkpt>
      <trkpt lat="44.33003" lon="2.59072">
        <ele>596</ele>
        <time>2001-01-01T00:00:00Z</time>
      </trkpt>
      <trkpt lat="44.3296" lon="2.5903">
        <ele>595</ele>
        <time>2001-01-01T00:00:00Z</time>
      </trkpt>
      <trkpt lat="44.32957" lon="2.59028">
        <ele>594</ele>
        <time>2001-01-01T00:00:00Z</time>
      </trkpt>
      <trkpt lat="44.32949" lon="2.59021">
        <ele>595</ele>
        <time>2001-01-01T00:00:00Z</time>
      </trkpt>
      <trkpt lat="44.32945" lon="2.59028">
        <ele>595</ele>
        <time>2001-01-01T00:00:00Z</time>
      </trkpt>
      <trkpt lat="44.32941" lon="2.59031">
        <ele>595</ele>
        <time>2001-01-01T00:00:00Z</time>
      </trkpt>
      <trkpt lat="44.3289" lon="2.59001">
        <ele>595</ele>
        <time>2001-01-01T00:00:00Z</time>
      </trkpt>
      <trkpt lat="44.3289" lon="2.58994">
        <ele>595</ele>
        <time>2001-01-01T00:00:00Z</time>
      </trkpt>
      <trkpt lat="44.3289" lon="2.58985">
        <ele>594</ele>
        <time>2001-01-01T00:00:00Z</time>
      </trkpt>
      <trkpt lat="44.32881" lon="2.58979">
        <ele>594</ele>
        <time>2001-01-01T00:00:00Z</time>
      </trkpt>
      <trkpt lat="44.32843" lon="2.58956">
        <ele>593</ele>
        <time>2001-01-01T00:00:00Z</time>
      </trkpt>
      <trkpt lat="44.32804" lon="2.58932">
        <ele>594</ele>
        <time>2001-01-01T00:00:00Z</time>
      </trkpt>
      <trkpt lat="44.32807" lon="2.58926">
        <ele>593</ele>
        <time>2001-01-01T00:00:00Z</time>
      </trkpt>
      <trkpt lat="44.32804" lon="2.58932">
        <ele>594</ele>
        <time>2001-01-01T00:00:00Z</time>
      </trkpt>
      <trkpt lat="44.32787" lon="2.58972">
        <ele>596</ele>
        <time>2001-01-01T00:00:00Z</time>
      </trkpt>
      <trkpt lat="44.3274" lon="2.5907">
        <ele>600</ele>
        <time>2001-01-01T00:00:00Z</time>
      </trkpt>
      <trkpt lat="44.32734" lon="2.59079">
        <ele>600</ele>
        <time>2001-01-01T00:00:00Z</time>
      </trkpt>
      <trkpt lat="44.32705" lon="2.59122">
        <ele>602</ele>
        <time>2001-01-01T00:00:00Z</time>
      </trkpt>
      <trkpt lat="44.32635" lon="2.59223">
        <ele>605</ele>
        <time>2001-01-01T00:00:00Z</time>
      </trkpt>
      <trkpt lat="44.32624" lon="2.59237">
        <ele>606</ele>
        <time>2001-01-01T00:00:00Z</time>
      </trkpt>
      <trkpt lat="44.32617" lon="2.59242">
        <ele>607</ele>
        <time>2001-01-01T00:00:00Z</time>
      </trkpt>
      <trkpt lat="44.32613" lon="2.5924">
        <ele>607</ele>
        <time>2001-01-01T00:00:00Z</time>
      </trkpt>
      <trkpt lat="44.32586" lon="2.59272">
        <ele>608</ele>
        <time>2001-01-01T00:00:00Z</time>
      </trkpt>
      <trkpt lat="44.32549" lon="2.59304">
        <ele>610</ele>
        <time>2001-01-01T00:00:00Z</time>
      </trkpt>
      <trkpt lat="44.32525" lon="2.59336">
        <ele>610</ele>
        <time>2001-01-01T00:00:00Z</time>
      </trkpt>
      <trkpt lat="44.32485" lon="2.59396">
        <ele>607</ele>
        <time>2001-01-01T00:00:00Z</time>
      </trkpt>
      <trkpt lat="44.32431" lon="2.59468">
        <ele>603</ele>
        <time>2001-01-01T00:00:00Z</time>
      </trkpt>
      <trkpt lat="44.32416" lon="2.59499">
        <ele>600</ele>
        <time>2001-01-01T00:00:00Z</time>
      </trkpt>
      <trkpt lat="44.32407" lon="2.59535">
        <ele>597</ele>
        <time>2001-01-01T00:00:00Z</time>
      </trkpt>
      <trkpt lat="44.32401" lon="2.59579">
        <ele>596</ele>
        <time>2001-01-01T00:00:00Z</time>
      </trkpt>
      <trkpt lat="44.32384" lon="2.59613">
        <ele>600</ele>
        <time>2001-01-01T00:00:00Z</time>
      </trkpt>
      <trkpt lat="44.32309" lon="2.59739">
        <ele>604</ele>
        <time>2001-01-01T00:00:00Z</time>
      </trkpt>
      <trkpt lat="44.32247" lon="2.59822">
        <ele>604</ele>
        <time>2001-01-01T00:00:00Z</time>
      </trkpt>
      <trkpt lat="44.32168" lon="2.59895">
        <ele>602</ele>
        <time>2001-01-01T00:00:00Z</time>
      </trkpt>
      <trkpt lat="44.32041" lon="2.60002">
        <ele>598</ele>
        <time>2001-01-01T00:00:00Z</time>
      </trkpt>
      <trkpt lat="44.32" lon="2.60037">
        <ele>599</ele>
        <time>2001-01-01T00:00:00Z</time>
      </trkpt>
      <trkpt lat="44.31944" lon="2.60084">
        <ele>601</ele>
        <time>2001-01-01T00:00:00Z</time>
      </trkpt>
      <trkpt lat="44.31914" lon="2.60118">
        <ele>602</ele>
        <time>2001-01-01T00:00:00Z</time>
      </trkpt>
      <trkpt lat="44.31903" lon="2.6013">
        <ele>602</ele>
        <time>2001-01-01T00:00:00Z</time>
      </trkpt>
      <trkpt lat="44.31842" lon="2.60189">
        <ele>600</ele>
        <time>2001-01-01T00:00:00Z</time>
      </trkpt>
      <trkpt lat="44.31818" lon="2.6022">
        <ele>599</ele>
        <time>2001-01-01T00:00:00Z</time>
      </trkpt>
      <trkpt lat="44.31773" lon="2.60292">
        <ele>596</ele>
        <time>2001-01-01T00:00:00Z</time>
      </trkpt>
      <trkpt lat="44.31693" lon="2.60391">
        <ele>589</ele>
        <time>2001-01-01T00:00:00Z</time>
      </trkpt>
      <trkpt lat="44.31668" lon="2.60412">
        <ele>588</ele>
        <time>2001-01-01T00:00:00Z</time>
      </trkpt>
      <trkpt lat="44.31626" lon="2.60452">
        <ele>586</ele>
        <time>2001-01-01T00:00:00Z</time>
      </trkpt>
      <trkpt lat="44.31583" lon="2.60518">
        <ele>585</ele>
        <time>2001-01-01T00:00:00Z</time>
      </trkpt>
      <trkpt lat="44.31556" lon="2.60557">
        <ele>583</ele>
        <time>2001-01-01T00:00:00Z</time>
      </trkpt>
      <trkpt lat="44.31545" lon="2.60569">
        <ele>583</ele>
        <time>2001-01-01T00:00:00Z</time>
      </trkpt>
      <trkpt lat="44.31534" lon="2.6058">
        <ele>583</ele>
        <time>2001-01-01T00:00:00Z</time>
      </trkpt>
      <trkpt lat="44.31522" lon="2.60581">
        <ele>583</ele>
        <time>2001-01-01T00:00:00Z</time>
      </trkpt>
      <trkpt lat="44.31518" lon="2.6058">
        <ele>583</ele>
        <time>2001-01-01T00:00:00Z</time>
      </trkpt>
      <trkpt lat="44.31515" lon="2.60578">
        <ele>583</ele>
        <time>2001-01-01T00:00:00Z</time>
      </trkpt>
      <trkpt lat="44.31512" lon="2.60576">
        <ele>584</ele>
        <time>2001-01-01T00:00:00Z</time>
      </trkpt>
      <trkpt lat="44.3151" lon="2.60575">
        <ele>584</ele>
        <time>2001-01-01T00:00:00Z</time>
      </trkpt>
      <trkpt lat="44.31496" lon="2.60603">
        <ele>584</ele>
        <time>2001-01-01T00:00:00Z</time>
      </trkpt>
      <trkpt lat="44.31439" lon="2.60691">
        <ele>591</ele>
        <time>2001-01-01T00:00:00Z</time>
      </trkpt>
      <trkpt lat="44.31395" lon="2.60767">
        <ele>596</ele>
        <time>2001-01-01T00:00:00Z</time>
      </trkpt>
      <trkpt lat="44.31377" lon="2.60792">
        <ele>598</ele>
        <time>2001-01-01T00:00:00Z</time>
      </trkpt>
      <trkpt lat="44.31368" lon="2.60802">
        <ele>600</ele>
        <time>2001-01-01T00:00:00Z</time>
      </trkpt>
      <trkpt lat="44.31359" lon="2.60802">
        <ele>601</ele>
        <time>2001-01-01T00:00:00Z</time>
      </trkpt>
      <trkpt lat="44.3135" lon="2.60803">
        <ele>602</ele>
        <time>2001-01-01T00:00:00Z</time>
      </trkpt>
      <trkpt lat="44.31336" lon="2.60802">
        <ele>604</ele>
        <time>2001-01-01T00:00:00Z</time>
      </trkpt>
      <trkpt lat="44.31319" lon="2.60797">
        <ele>604</ele>
        <time>2001-01-01T00:00:00Z</time>
      </trkpt>
      <trkpt lat="44.31222" lon="2.60793">
        <ele>610</ele>
        <time>2001-01-01T00:00:00Z</time>
      </trkpt>
      <trkpt lat="44.31133" lon="2.60792">
        <ele>614</ele>
        <time>2001-01-01T00:00:00Z</time>
      </trkpt>
      <trkpt lat="44.31106" lon="2.60779">
        <ele>616</ele>
        <time>2001-01-01T00:00:00Z</time>
      </trkpt>
      <trkpt lat="44.31086" lon="2.60773">
        <ele>617</ele>
        <time>2001-01-01T00:00:00Z</time>
      </trkpt>
      <trkpt lat="44.31061" lon="2.60749">
        <ele>618</ele>
        <time>2001-01-01T00:00:00Z</time>
      </trkpt>
      <trkpt lat="44.31059" lon="2.60748">
        <ele>618</ele>
        <time>2001-01-01T00:00:00Z</time>
      </trkpt>
      <trkpt lat="44.31055" lon="2.60745">
        <ele>619</ele>
        <time>2001-01-01T00:00:00Z</time>
      </trkpt>
      <trkpt lat="44.31026" lon="2.6074">
        <ele>622</ele>
        <time>2001-01-01T00:00:00Z</time>
      </trkpt>
      <trkpt lat="44.31013" lon="2.60724">
        <ele>624</ele>
        <time>2001-01-01T00:00:00Z</time>
      </trkpt>
      <trkpt lat="44.30993" lon="2.60655">
        <ele>625</ele>
        <time>2001-01-01T00:00:00Z</time>
      </trkpt>
      <trkpt lat="44.3097" lon="2.60616">
        <ele>626</ele>
        <time>2001-01-01T00:00:00Z</time>
      </trkpt>
      <trkpt lat="44.30917" lon="2.60506">
        <ele>626</ele>
        <time>2001-01-01T00:00:00Z</time>
      </trkpt>
      <trkpt lat="44.30892" lon="2.60455">
        <ele>628</ele>
        <time>2001-01-01T00:00:00Z</time>
      </trkpt>
      <trkpt lat="44.3087" lon="2.60422">
        <ele>628</ele>
        <time>2001-01-01T00:00:00Z</time>
      </trkpt>
      <trkpt lat="44.30816" lon="2.60387">
        <ele>628</ele>
        <time>2001-01-01T00:00:00Z</time>
      </trkpt>
      <trkpt lat="44.30755" lon="2.6034">
        <ele>625</ele>
        <time>2001-01-01T00:00:00Z</time>
      </trkpt>
      <trkpt lat="44.30659" lon="2.60227">
        <ele>626</ele>
        <time>2001-01-01T00:00:00Z</time>
      </trkpt>
      <trkpt lat="44.30644" lon="2.60208">
        <ele>625</ele>
        <time>2001-01-01T00:00:00Z</time>
      </trkpt>
      <trkpt lat="44.30635" lon="2.60197">
        <ele>625</ele>
        <time>2001-01-01T00:00:00Z</time>
      </trkpt>
      <trkpt lat="44.3056" lon="2.60304">
        <ele>629</ele>
        <time>2001-01-01T00:00:00Z</time>
      </trkpt>
      <trkpt lat="44.30528" lon="2.60364">
        <ele>628</ele>
        <time>2001-01-01T00:00:00Z</time>
      </trkpt>
      <trkpt lat="44.30496" lon="2.60457">
        <ele>626</ele>
        <time>2001-01-01T00:00:00Z</time>
      </trkpt>
      <trkpt lat="44.30497" lon="2.60474">
        <ele>626</ele>
        <time>2001-01-01T00:00:00Z</time>
      </trkpt>
      <trkpt lat="44.30497" lon="2.60475">
        <ele>626</ele>
        <time>2001-01-01T00:00:00Z</time>
      </trkpt>
      <trkpt lat="44.30497" lon="2.60515">
        <ele>625</ele>
        <time>2001-01-01T00:00:00Z</time>
      </trkpt>
      <trkpt lat="44.30485" lon="2.60592">
        <ele>624</ele>
        <time>2001-01-01T00:00:00Z</time>
      </trkpt>
      <trkpt lat="44.30477" lon="2.60677">
        <ele>623</ele>
        <time>2001-01-01T00:00:00Z</time>
      </trkpt>
      <trkpt lat="44.30476" lon="2.60722">
        <ele>621</ele>
        <time>2001-01-01T00:00:00Z</time>
      </trkpt>
      <trkpt lat="44.30485" lon="2.6078">
        <ele>619</ele>
        <time>2001-01-01T00:00:00Z</time>
      </trkpt>
      <trkpt lat="44.30486" lon="2.60798">
        <ele>619</ele>
        <time>2001-01-01T00:00:00Z</time>
      </trkpt>
      <trkpt lat="44.30481" lon="2.60836">
        <ele>619</ele>
        <time>2001-01-01T00:00:00Z</time>
      </trkpt>
      <trkpt lat="44.3048" lon="2.60844">
        <ele>619</ele>
        <time>2001-01-01T00:00:00Z</time>
      </trkpt>
      <trkpt lat="44.30465" lon="2.60933">
        <ele>620</ele>
        <time>2001-01-01T00:00:00Z</time>
      </trkpt>
      <trkpt lat="44.30459" lon="2.60983">
        <ele>620</ele>
        <time>2001-01-01T00:00:00Z</time>
      </trkpt>
      <trkpt lat="44.30456" lon="2.61053">
        <ele>619</ele>
        <time>2001-01-01T00:00:00Z</time>
      </trkpt>
      <trkpt lat="44.30465" lon="2.61085">
        <ele>620</ele>
        <time>2001-01-01T00:00:00Z</time>
      </trkpt>
      <trkpt lat="44.3047" lon="2.61132">
        <ele>620</ele>
        <time>2001-01-01T00:00:00Z</time>
      </trkpt>
      <trkpt lat="44.30466" lon="2.61188">
        <ele>622</ele>
        <time>2001-01-01T00:00:00Z</time>
      </trkpt>
      <trkpt lat="44.3047" lon="2.61235">
        <ele>624</ele>
        <time>2001-01-01T00:00:00Z</time>
      </trkpt>
      <trkpt lat="44.30485" lon="2.6128">
        <ele>627</ele>
        <time>2001-01-01T00:00:00Z</time>
      </trkpt>
      <trkpt lat="44.30492" lon="2.61318">
        <ele>628</ele>
        <time>2001-01-01T00:00:00Z</time>
      </trkpt>
      <trkpt lat="44.30495" lon="2.61345">
        <ele>629</ele>
        <time>2001-01-01T00:00:00Z</time>
      </trkpt>
      <trkpt lat="44.30487" lon="2.61387">
        <ele>630</ele>
        <time>2001-01-01T00:00:00Z</time>
      </trkpt>
      <trkpt lat="44.30477" lon="2.61514">
        <ele>632</ele>
        <time>2001-01-01T00:00:00Z</time>
      </trkpt>
      <trkpt lat="44.3049" lon="2.6163">
        <ele>634</ele>
        <time>2001-01-01T00:00:00Z</time>
      </trkpt>
      <trkpt lat="44.30497" lon="2.61678">
        <ele>634</ele>
        <time>2001-01-01T00:00:00Z</time>
      </trkpt>
      <trkpt lat="44.30499" lon="2.61731">
        <ele>635</ele>
        <time>2001-01-01T00:00:00Z</time>
      </trkpt>
      <trkpt lat="44.30522" lon="2.61848">
        <ele>635</ele>
        <time>2001-01-01T00:00:00Z</time>
      </trkpt>
      <trkpt lat="44.30544" lon="2.61903">
        <ele>635</ele>
        <time>2001-01-01T00:00:00Z</time>
      </trkpt>
      <trkpt lat="44.30558" lon="2.61933">
        <ele>636</ele>
        <time>2001-01-01T00:00:00Z</time>
      </trkpt>
      <trkpt lat="44.30577" lon="2.61974">
        <ele>636</ele>
        <time>2001-01-01T00:00:00Z</time>
      </trkpt>
      <trkpt lat="44.30583" lon="2.61978">
        <ele>636</ele>
        <time>2001-01-01T00:00:00Z</time>
      </trkpt>
      <trkpt lat="44.30584" lon="2.61979">
        <ele>636</ele>
        <time>2001-01-01T00:00:00Z</time>
      </trkpt>
      <trkpt lat="44.30592" lon="2.61983">
        <ele>636</ele>
        <time>2001-01-01T00:00:00Z</time>
      </trkpt>
      <trkpt lat="44.30613" lon="2.61983">
        <ele>638</ele>
        <time>2001-01-01T00:00:00Z</time>
      </trkpt>
      <trkpt lat="44.30659" lon="2.61978">
        <ele>640</ele>
        <time>2001-01-01T00:00:00Z</time>
      </trkpt>
      <trkpt lat="44.30689" lon="2.61969">
        <ele>642</ele>
        <time>2001-01-01T00:00:00Z</time>
      </trkpt>
      <trkpt lat="44.30719" lon="2.61952">
        <ele>642</ele>
        <time>2001-01-01T00:00:00Z</time>
      </trkpt>
      <trkpt lat="44.30805" lon="2.61925">
        <ele>643</ele>
        <time>2001-01-01T00:00:00Z</time>
      </trkpt>
      <trkpt lat="44.30834" lon="2.61911">
        <ele>644</ele>
        <time>2001-01-01T00:00:00Z</time>
      </trkpt>
      <trkpt lat="44.31014" lon="2.61908">
        <ele>639</ele>
        <time>2001-01-01T00:00:00Z</time>
      </trkpt>
      <trkpt lat="44.31083" lon="2.61913">
        <ele>637</ele>
        <time>2001-01-01T00:00:00Z</time>
      </trkpt>
      <trkpt lat="44.31084" lon="2.61913">
        <ele>637</ele>
        <time>2001-01-01T00:00:00Z</time>
      </trkpt>
      <trkpt lat="44.31094" lon="2.61934">
        <ele>636</ele>
        <time>2001-01-01T00:00:00Z</time>
      </trkpt>
      <trkpt lat="44.31103" lon="2.61978">
        <ele>634</ele>
        <time>2001-01-01T00:00:00Z</time>
      </trkpt>
      <trkpt lat="44.31109" lon="2.62038">
        <ele>632</ele>
        <time>2001-01-01T00:00:00Z</time>
      </trkpt>
      <trkpt lat="44.31116" lon="2.62079">
        <ele>629</ele>
        <time>2001-01-01T00:00:00Z</time>
      </trkpt>
      <trkpt lat="44.3112" lon="2.62121">
        <ele>628</ele>
        <time>2001-01-01T00:00:00Z</time>
      </trkpt>
      <trkpt lat="44.31112" lon="2.62173">
        <ele>626</ele>
        <time>2001-01-01T00:00:00Z</time>
      </trkpt>
      <trkpt lat="44.31104" lon="2.62205">
        <ele>625</ele>
        <time>2001-01-01T00:00:00Z</time>
      </trkpt>
      <trkpt lat="44.31088" lon="2.62232">
        <ele>621</ele>
        <time>2001-01-01T00:00:00Z</time>
      </trkpt>
      <trkpt lat="44.31083" lon="2.62254">
        <ele>620</ele>
        <time>2001-01-01T00:00:00Z</time>
      </trkpt>
      <trkpt lat="44.3108" lon="2.62274">
        <ele>619</ele>
        <time>2001-01-01T00:00:00Z</time>
      </trkpt>
      <trkpt lat="44.31099" lon="2.62399">
        <ele>602</ele>
        <time>2001-01-01T00:00:00Z</time>
      </trkpt>
      <trkpt lat="44.31086" lon="2.62418">
        <ele>600</ele>
        <time>2001-01-01T00:00:00Z</time>
      </trkpt>
      <trkpt lat="44.31081" lon="2.62433">
        <ele>598</ele>
        <time>2001-01-01T00:00:00Z</time>
      </trkpt>
      <trkpt lat="44.31082" lon="2.62468">
        <ele>595</ele>
        <time>2001-01-01T00:00:00Z</time>
      </trkpt>
      <trkpt lat="44.31083" lon="2.62482">
        <ele>595</ele>
        <time>2001-01-01T00:00:00Z</time>
      </trkpt>
      <trkpt lat="44.31084" lon="2.62484">
        <ele>595</ele>
        <time>2001-01-01T00:00:00Z</time>
      </trkpt>
      <trkpt lat="44.31084" lon="2.62486">
        <ele>595</ele>
        <time>2001-01-01T00:00:00Z</time>
      </trkpt>
      <trkpt lat="44.31084" lon="2.62488">
        <ele>595</ele>
        <time>2001-01-01T00:00:00Z</time>
      </trkpt>
      <trkpt lat="44.311" lon="2.62511">
        <ele>595</ele>
        <time>2001-01-01T00:00:00Z</time>
      </trkpt>
      <trkpt lat="44.31113" lon="2.62519">
        <ele>596</ele>
        <time>2001-01-01T00:00:00Z</time>
      </trkpt>
      <trkpt lat="44.3113" lon="2.62525">
        <ele>596</ele>
        <time>2001-01-01T00:00:00Z</time>
      </trkpt>
      <trkpt lat="44.31136" lon="2.62525">
        <ele>597</ele>
        <time>2001-01-01T00:00:00Z</time>
      </trkpt>
      <trkpt lat="44.31198" lon="2.62503">
        <ele>597</ele>
        <time>2001-01-01T00:00:00Z</time>
      </trkpt>
      <trkpt lat="44.31204" lon="2.62503">
        <ele>597</ele>
        <time>2001-01-01T00:00:00Z</time>
      </trkpt>
      <trkpt lat="44.3121" lon="2.62507">
        <ele>597</ele>
        <time>2001-01-01T00:00:00Z</time>
      </trkpt>
      <trkpt lat="44.31286" lon="2.62588">
        <ele>597</ele>
        <time>2001-01-01T00:00:00Z</time>
      </trkpt>
      <trkpt lat="44.31338" lon="2.6265">
        <ele>598</ele>
        <time>2001-01-01T00:00:00Z</time>
      </trkpt>
      <trkpt lat="44.31346" lon="2.62674">
        <ele>598</ele>
        <time>2001-01-01T00:00:00Z</time>
      </trkpt>
      <trkpt lat="44.31346" lon="2.62701">
        <ele>598</ele>
        <time>2001-01-01T00:00:00Z</time>
      </trkpt>
      <trkpt lat="44.31339" lon="2.62768">
        <ele>597</ele>
        <time>2001-01-01T00:00:00Z</time>
      </trkpt>
      <trkpt lat="44.31338" lon="2.62776">
        <ele>597</ele>
        <time>2001-01-01T00:00:00Z</time>
      </trkpt>
      <trkpt lat="44.31348" lon="2.62781">
        <ele>595</ele>
        <time>2001-01-01T00:00:00Z</time>
      </trkpt>
      <trkpt lat="44.31356" lon="2.62799">
        <ele>594</ele>
        <time>2001-01-01T00:00:00Z</time>
      </trkpt>
      <trkpt lat="44.31359" lon="2.62806">
        <ele>594</ele>
        <time>2001-01-01T00:00:00Z</time>
      </trkpt>
      <trkpt lat="44.31366" lon="2.6282">
        <ele>595</ele>
        <time>2001-01-01T00:00:00Z</time>
      </trkpt>
      <trkpt lat="44.31372" lon="2.62831">
        <ele>597</ele>
        <time>2001-01-01T00:00:00Z</time>
      </trkpt>
      <trkpt lat="44.31374" lon="2.62836">
        <ele>598</ele>
        <time>2001-01-01T00:00:00Z</time>
      </trkpt>
      <trkpt lat="44.31333" lon="2.62934">
        <ele>597</ele>
        <time>2001-01-01T00:00:00Z</time>
      </trkpt>
      <trkpt lat="44.31302" lon="2.63028">
        <ele>607</ele>
        <time>2001-01-01T00:00:00Z</time>
      </trkpt>
      <trkpt lat="44.31296" lon="2.63055">
        <ele>610</ele>
        <time>2001-01-01T00:00:00Z</time>
      </trkpt>
      <trkpt lat="44.31287" lon="2.63079">
        <ele>611</ele>
        <time>2001-01-01T00:00:00Z</time>
      </trkpt>
      <trkpt lat="44.31291" lon="2.6309">
        <ele>613</ele>
        <time>2001-01-01T00:00:00Z</time>
      </trkpt>
      <trkpt lat="44.31275" lon="2.631">
        <ele>611</ele>
        <time>2001-01-01T00:00:00Z</time>
      </trkpt>
      <trkpt lat="44.31291" lon="2.6309">
        <ele>613</ele>
        <time>2001-01-01T00:00:00Z</time>
      </trkpt>
      <trkpt lat="44.31309" lon="2.63076">
        <ele>616</ele>
        <time>2001-01-01T00:00:00Z</time>
      </trkpt>
      <trkpt lat="44.31338" lon="2.63063">
        <ele>618</ele>
        <time>2001-01-01T00:00:00Z</time>
      </trkpt>
      <trkpt lat="44.31355" lon="2.63065">
        <ele>619</ele>
        <time>2001-01-01T00:00:00Z</time>
      </trkpt>
      <trkpt lat="44.31366" lon="2.63076">
        <ele>621</ele>
        <time>2001-01-01T00:00:00Z</time>
      </trkpt>
      <trkpt lat="44.31377" lon="2.63096">
        <ele>622</ele>
        <time>2001-01-01T00:00:00Z</time>
      </trkpt>
      <trkpt lat="44.31376" lon="2.63177">
        <ele>631</ele>
        <time>2001-01-01T00:00:00Z</time>
      </trkpt>
      <trkpt lat="44.31375" lon="2.63183">
        <ele>632</ele>
        <time>2001-01-01T00:00:00Z</time>
      </trkpt>
      <trkpt lat="44.31375" lon="2.63209">
        <ele>634</ele>
        <time>2001-01-01T00:00:00Z</time>
      </trkpt>
      <trkpt lat="44.31372" lon="2.63241">
        <ele>637</ele>
        <time>2001-01-01T00:00:00Z</time>
      </trkpt>
      <trkpt lat="44.31368" lon="2.63249">
        <ele>638</ele>
        <time>2001-01-01T00:00:00Z</time>
      </trkpt>
      <trkpt lat="44.31345" lon="2.63296">
        <ele>640</ele>
        <time>2001-01-01T00:00:00Z</time>
      </trkpt>
      <trkpt lat="44.31342" lon="2.63314">
        <ele>641</ele>
        <time>2001-01-01T00:00:00Z</time>
      </trkpt>
      <trkpt lat="44.31345" lon="2.6339">
        <ele>643</ele>
        <time>2001-01-01T00:00:00Z</time>
      </trkpt>
      <trkpt lat="44.31348" lon="2.63404">
        <ele>644</ele>
        <time>2001-01-01T00:00:00Z</time>
      </trkpt>
      <trkpt lat="44.31386" lon="2.63452">
        <ele>646</ele>
        <time>2001-01-01T00:00:00Z</time>
      </trkpt>
      <trkpt lat="44.31395" lon="2.63478">
        <ele>645</ele>
        <time>2001-01-01T00:00:00Z</time>
      </trkpt>
      <trkpt lat="44.31408" lon="2.63516">
        <ele>645</ele>
        <time>2001-01-01T00:00:00Z</time>
      </trkpt>
      <trkpt lat="44.31395" lon="2.63478">
        <ele>645</ele>
        <time>2001-01-01T00:00:00Z</time>
      </trkpt>
      <trkpt lat="44.31406" lon="2.636">
        <ele>638</ele>
        <time>2001-01-01T00:00:00Z</time>
      </trkpt>
      <trkpt lat="44.31401" lon="2.63626">
        <ele>634</ele>
        <time>2001-01-01T00:00:00Z</time>
      </trkpt>
      <trkpt lat="44.31403" lon="2.6364">
        <ele>632</ele>
        <time>2001-01-01T00:00:00Z</time>
      </trkpt>
      <trkpt lat="44.31423" lon="2.6368">
        <ele>632</ele>
        <time>2001-01-01T00:00:00Z</time>
      </trkpt>
      <trkpt lat="44.31391" lon="2.63783">
        <ele>625</ele>
        <time>2001-01-01T00:00:00Z</time>
      </trkpt>
      <trkpt lat="44.31389" lon="2.63814">
        <ele>623</ele>
        <time>2001-01-01T00:00:00Z</time>
      </trkpt>
      <trkpt lat="44.31414" lon="2.63889">
        <ele>620</ele>
        <time>2001-01-01T00:00:00Z</time>
      </trkpt>
      <trkpt lat="44.31442" lon="2.63947">
        <ele>619</ele>
        <time>2001-01-01T00:00:00Z</time>
      </trkpt>
      <trkpt lat="44.31483" lon="2.64001">
        <ele>620</ele>
        <time>2001-01-01T00:00:00Z</time>
      </trkpt>
      <trkpt lat="44.31508" lon="2.64017">
        <ele>622</ele>
        <time>2001-01-01T00:00:00Z</time>
      </trkpt>
      <trkpt lat="44.31525" lon="2.64049">
        <ele>623</ele>
        <time>2001-01-01T00:00:00Z</time>
      </trkpt>
      <trkpt lat="44.31526" lon="2.64079">
        <ele>622</ele>
        <time>2001-01-01T00:00:00Z</time>
      </trkpt>
      <trkpt lat="44.31528" lon="2.64126">
        <ele>622</ele>
        <time>2001-01-01T00:00:00Z</time>
      </trkpt>
      <trkpt lat="44.31554" lon="2.64167">
        <ele>625</ele>
        <time>2001-01-01T00:00:00Z</time>
      </trkpt>
      <trkpt lat="44.31591" lon="2.64231">
        <ele>625</ele>
        <time>2001-01-01T00:00:00Z</time>
      </trkpt>
      <trkpt lat="44.31606" lon="2.64286">
        <ele>628</ele>
        <time>2001-01-01T00:00:00Z</time>
      </trkpt>
      <trkpt lat="44.3163" lon="2.64344">
        <ele>629</ele>
        <time>2001-01-01T00:00:00Z</time>
      </trkpt>
      <trkpt lat="44.31616" lon="2.64382">
        <ele>631</ele>
        <time>2001-01-01T00:00:00Z</time>
      </trkpt>
      <trkpt lat="44.31616" lon="2.64384">
        <ele>631</ele>
        <time>2001-01-01T00:00:00Z</time>
      </trkpt>
      <trkpt lat="44.31612" lon="2.64404">
        <ele>632</ele>
        <time>2001-01-01T00:00:00Z</time>
      </trkpt>
      <trkpt lat="44.31605" lon="2.64428">
        <ele>632</ele>
        <time>2001-01-01T00:00:00Z</time>
      </trkpt>
      <trkpt lat="44.31604" lon="2.64468">
        <ele>633</ele>
        <time>2001-01-01T00:00:00Z</time>
      </trkpt>
      <trkpt lat="44.31607" lon="2.64529">
        <ele>634</ele>
        <time>2001-01-01T00:00:00Z</time>
      </trkpt>
      <trkpt lat="44.31609" lon="2.64525">
        <ele>635</ele>
        <time>2001-01-01T00:00:00Z</time>
      </trkpt>
      <trkpt lat="44.31607" lon="2.64529">
        <ele>634</ele>
        <time>2001-01-01T00:00:00Z</time>
      </trkpt>
      <trkpt lat="44.3159" lon="2.64557">
        <ele>632</ele>
        <time>2001-01-01T00:00:00Z</time>
      </trkpt>
      <trkpt lat="44.31571" lon="2.64574">
        <ele>632</ele>
        <time>2001-01-01T00:00:00Z</time>
      </trkpt>
      <trkpt lat="44.31568" lon="2.64578">
        <ele>633</ele>
        <time>2001-01-01T00:00:00Z</time>
      </trkpt>
      <trkpt lat="44.31569" lon="2.64597">
        <ele>633</ele>
        <time>2001-01-01T00:00:00Z</time>
      </trkpt>
      <trkpt lat="44.3157" lon="2.64613">
        <ele>634</ele>
        <time>2001-01-01T00:00:00Z</time>
      </trkpt>
      <trkpt lat="44.31569" lon="2.64633">
        <ele>636</ele>
        <time>2001-01-01T00:00:00Z</time>
      </trkpt>
      <trkpt lat="44.31566" lon="2.64652">
        <ele>639</ele>
        <time>2001-01-01T00:00:00Z</time>
      </trkpt>
      <trkpt lat="44.31542" lon="2.64697">
        <ele>642</ele>
        <time>2001-01-01T00:00:00Z</time>
      </trkpt>
      <trkpt lat="44.31542" lon="2.64708">
        <ele>643</ele>
        <time>2001-01-01T00:00:00Z</time>
      </trkpt>
      <trkpt lat="44.31543" lon="2.64716">
        <ele>644</ele>
        <time>2001-01-01T00:00:00Z</time>
      </trkpt>
      <trkpt lat="44.31545" lon="2.6472">
        <ele>644</ele>
        <time>2001-01-01T00:00:00Z</time>
      </trkpt>
      <trkpt lat="44.31545" lon="2.64721">
        <ele>644</ele>
        <time>2001-01-01T00:00:00Z</time>
      </trkpt>
      <trkpt lat="44.3155" lon="2.6473">
        <ele>646</ele>
        <time>2001-01-01T00:00:00Z</time>
      </trkpt>
      <trkpt lat="44.3156" lon="2.64731">
        <ele>647</ele>
        <time>2001-01-01T00:00:00Z</time>
      </trkpt>
      <trkpt lat="44.31569" lon="2.64733">
        <ele>648</ele>
        <time>2001-01-01T00:00:00Z</time>
      </trkpt>
      <trkpt lat="44.31576" lon="2.64735">
        <ele>648</ele>
        <time>2001-01-01T00:00:00Z</time>
      </trkpt>
      <trkpt lat="44.31559" lon="2.6475">
        <ele>649</ele>
        <time>2001-01-01T00:00:00Z</time>
      </trkpt>
      <trkpt lat="44.31564" lon="2.64773">
        <ele>652</ele>
        <time>2001-01-01T00:00:00Z</time>
      </trkpt>
      <trkpt lat="44.31566" lon="2.64808">
        <ele>654</ele>
        <time>2001-01-01T00:00:00Z</time>
      </trkpt>
      <trkpt lat="44.31566" lon="2.64846">
        <ele>657</ele>
        <time>2001-01-01T00:00:00Z</time>
      </trkpt>
      <trkpt lat="44.31569" lon="2.64879">
        <ele>661</ele>
        <time>2001-01-01T00:00:00Z</time>
      </trkpt>
      <trkpt lat="44.31574" lon="2.64898">
        <ele>663</ele>
        <time>2001-01-01T00:00:00Z</time>
      </trkpt>
      <trkpt lat="44.31576" lon="2.64907">
        <ele>664</ele>
        <time>2001-01-01T00:00:00Z</time>
      </trkpt>
      <trkpt lat="44.31573" lon="2.64959">
        <ele>668</ele>
        <time>2001-01-01T00:00:00Z</time>
      </trkpt>
      <trkpt lat="44.31576" lon="2.64968">
        <ele>670</ele>
        <time>2001-01-01T00:00:00Z</time>
      </trkpt>
      <trkpt lat="44.31578" lon="2.64976">
        <ele>671</ele>
        <time>2001-01-01T00:00:00Z</time>
      </trkpt>
      <trkpt lat="44.31588" lon="2.6498">
        <ele>672</ele>
        <time>2001-01-01T00:00:00Z</time>
      </trkpt>
      <trkpt lat="44.31598" lon="2.64982">
        <ele>673</ele>
        <time>2001-01-01T00:00:00Z</time>
      </trkpt>
      <trkpt lat="44.31602" lon="2.64983">
        <ele>674</ele>
        <time>2001-01-01T00:00:00Z</time>
      </trkpt>
      <trkpt lat="44.31621" lon="2.64993">
        <ele>676</ele>
        <time>2001-01-01T00:00:00Z</time>
      </trkpt>
      <trkpt lat="44.31625" lon="2.64996">
        <ele>676</ele>
        <time>2001-01-01T00:00:00Z</time>
      </trkpt>
      <trkpt lat="44.31654" lon="2.65021">
        <ele>680</ele>
        <time>2001-01-01T00:00:00Z</time>
      </trkpt>
      <trkpt lat="44.31688" lon="2.6506">
        <ele>684</ele>
        <time>2001-01-01T00:00:00Z</time>
      </trkpt>
      <trkpt lat="44.31698" lon="2.65079">
        <ele>687</ele>
        <time>2001-01-01T00:00:00Z</time>
      </trkpt>
      <trkpt lat="44.31702" lon="2.65112">
        <ele>690</ele>
        <time>2001-01-01T00:00:00Z</time>
      </trkpt>
      <trkpt lat="44.31703" lon="2.65147">
        <ele>693</ele>
        <time>2001-01-01T00:00:00Z</time>
      </trkpt>
      <trkpt lat="44.31697" lon="2.6517">
        <ele>694</ele>
        <time>2001-01-01T00:00:00Z</time>
      </trkpt>
      <trkpt lat="44.31683" lon="2.6524">
        <ele>699</ele>
        <time>2001-01-01T00:00:00Z</time>
      </trkpt>
      <trkpt lat="44.3167" lon="2.65305">
        <ele>703</ele>
        <time>2001-01-01T00:00:00Z</time>
      </trkpt>
      <trkpt lat="44.31668" lon="2.65341">
        <ele>705</ele>
        <time>2001-01-01T00:00:00Z</time>
      </trkpt>
      <trkpt lat="44.31669" lon="2.65362">
        <ele>706</ele>
        <time>2001-01-01T00:00:00Z</time>
      </trkpt>
      <trkpt lat="44.31696" lon="2.65404">
        <ele>708</ele>
        <time>2001-01-01T00:00:00Z</time>
      </trkpt>
      <trkpt lat="44.31715" lon="2.65431">
        <ele>707</ele>
        <time>2001-01-01T00:00:00Z</time>
      </trkpt>
      <trkpt lat="44.31727" lon="2.65465">
        <ele>705</ele>
        <time>2001-01-01T00:00:00Z</time>
      </trkpt>
      <trkpt lat="44.31731" lon="2.65494">
        <ele>702</ele>
        <time>2001-01-01T00:00:00Z</time>
      </trkpt>
      <trkpt lat="44.31728" lon="2.65539">
        <ele>701</ele>
        <time>2001-01-01T00:00:00Z</time>
      </trkpt>
      <trkpt lat="44.31724" lon="2.65549">
        <ele>701</ele>
        <time>2001-01-01T00:00:00Z</time>
      </trkpt>
      <trkpt lat="44.31723" lon="2.6556">
        <ele>701</ele>
        <time>2001-01-01T00:00:00Z</time>
      </trkpt>
      <trkpt lat="44.31723" lon="2.65594">
        <ele>701</ele>
        <time>2001-01-01T00:00:00Z</time>
      </trkpt>
      <trkpt lat="44.31722" lon="2.65626">
        <ele>701</ele>
        <time>2001-01-01T00:00:00Z</time>
      </trkpt>
      <trkpt lat="44.31727" lon="2.65657">
        <ele>702</ele>
        <time>2001-01-01T00:00:00Z</time>
      </trkpt>
      <trkpt lat="44.31732" lon="2.65669">
        <ele>702</ele>
        <time>2001-01-01T00:00:00Z</time>
      </trkpt>
      <trkpt lat="44.31755" lon="2.65708">
        <ele>704</ele>
        <time>2001-01-01T00:00:00Z</time>
      </trkpt>
      <trkpt lat="44.31851" lon="2.65846">
        <ele>716</ele>
        <time>2001-01-01T00:00:00Z</time>
      </trkpt>
      <trkpt lat="44.31854" lon="2.65849">
        <ele>716</ele>
        <time>2001-01-01T00:00:00Z</time>
      </trkpt>
      <trkpt lat="44.31859" lon="2.65855">
        <ele>717</ele>
        <time>2001-01-01T00:00:00Z</time>
      </trkpt>
      <trkpt lat="44.31852" lon="2.6587">
        <ele>718</ele>
        <time>2001-01-01T00:00:00Z</time>
      </trkpt>
      <trkpt lat="44.31836" lon="2.65895">
        <ele>718</ele>
        <time>2001-01-01T00:00:00Z</time>
      </trkpt>
      <trkpt lat="44.3179" lon="2.65944">
        <ele>720</ele>
        <time>2001-01-01T00:00:00Z</time>
      </trkpt>
      <trkpt lat="44.31776" lon="2.65963">
        <ele>721</ele>
        <time>2001-01-01T00:00:00Z</time>
      </trkpt>
      <trkpt lat="44.31769" lon="2.65979">
        <ele>722</ele>
        <time>2001-01-01T00:00:00Z</time>
      </trkpt>
      <trkpt lat="44.31766" lon="2.65994">
        <ele>722</ele>
        <time>2001-01-01T00:00:00Z</time>
      </trkpt>
      <trkpt lat="44.31769" lon="2.66011">
        <ele>722</ele>
        <time>2001-01-01T00:00:00Z</time>
      </trkpt>
      <trkpt lat="44.31787" lon="2.66056">
        <ele>724</ele>
        <time>2001-01-01T00:00:00Z</time>
      </trkpt>
      <trkpt lat="44.31787" lon="2.6606">
        <ele>725</ele>
        <time>2001-01-01T00:00:00Z</time>
      </trkpt>
      <trkpt lat="44.31788" lon="2.66073">
        <ele>725</ele>
        <time>2001-01-01T00:00:00Z</time>
      </trkpt>
      <trkpt lat="44.31784" lon="2.66089">
        <ele>726</ele>
        <time>2001-01-01T00:00:00Z</time>
      </trkpt>
      <trkpt lat="44.31777" lon="2.66097">
        <ele>726</ele>
        <time>2001-01-01T00:00:00Z</time>
      </trkpt>
      <trkpt lat="44.31727" lon="2.66136">
        <ele>729</ele>
        <time>2001-01-01T00:00:00Z</time>
      </trkpt>
      <trkpt lat="44.31713" lon="2.66153">
        <ele>729</ele>
        <time>2001-01-01T00:00:00Z</time>
      </trkpt>
      <trkpt lat="44.31703" lon="2.66172">
        <ele>729</ele>
        <time>2001-01-01T00:00:00Z</time>
      </trkpt>
      <trkpt lat="44.31695" lon="2.66196">
        <ele>731</ele>
        <time>2001-01-01T00:00:00Z</time>
      </trkpt>
      <trkpt lat="44.31691" lon="2.66223">
        <ele>732</ele>
        <time>2001-01-01T00:00:00Z</time>
      </trkpt>
      <trkpt lat="44.31689" lon="2.66249">
        <ele>734</ele>
        <time>2001-01-01T00:00:00Z</time>
      </trkpt>
      <trkpt lat="44.31692" lon="2.66272">
        <ele>734</ele>
        <time>2001-01-01T00:00:00Z</time>
      </trkpt>
      <trkpt lat="44.31696" lon="2.66296">
        <ele>735</ele>
        <time>2001-01-01T00:00:00Z</time>
      </trkpt>
      <trkpt lat="44.31714" lon="2.66325">
        <ele>737</ele>
        <time>2001-01-01T00:00:00Z</time>
      </trkpt>
      <trkpt lat="44.31719" lon="2.6634">
        <ele>738</ele>
        <time>2001-01-01T00:00:00Z</time>
      </trkpt>
      <trkpt lat="44.3172" lon="2.66349">
        <ele>738</ele>
        <time>2001-01-01T00:00:00Z</time>
      </trkpt>
      <trkpt lat="44.3172" lon="2.66353">
        <ele>738</ele>
        <time>2001-01-01T00:00:00Z</time>
      </trkpt>
      <trkpt lat="44.31718" lon="2.66368">
        <ele>740</ele>
        <time>2001-01-01T00:00:00Z</time>
      </trkpt>
      <trkpt lat="44.31701" lon="2.66402">
        <ele>742</ele>
        <time>2001-01-01T00:00:00Z</time>
      </trkpt>
      <trkpt lat="44.31685" lon="2.66431">
        <ele>743</ele>
        <time>2001-01-01T00:00:00Z</time>
      </trkpt>
      <trkpt lat="44.31676" lon="2.66438">
        <ele>743</ele>
        <time>2001-01-01T00:00:00Z</time>
      </trkpt>
      <trkpt lat="44.31666" lon="2.66441">
        <ele>743</ele>
        <time>2001-01-01T00:00:00Z</time>
      </trkpt>
      <trkpt lat="44.31657" lon="2.6644">
        <ele>743</ele>
        <time>2001-01-01T00:00:00Z</time>
      </trkpt>
      <trkpt lat="44.31647" lon="2.66437">
        <ele>744</ele>
        <time>2001-01-01T00:00:00Z</time>
      </trkpt>
      <trkpt lat="44.31611" lon="2.66407">
        <ele>746</ele>
        <time>2001-01-01T00:00:00Z</time>
      </trkpt>
      <trkpt lat="44.31597" lon="2.664">
        <ele>747</ele>
        <time>2001-01-01T00:00:00Z</time>
      </trkpt>
      <trkpt lat="44.31585" lon="2.66399">
        <ele>748</ele>
        <time>2001-01-01T00:00:00Z</time>
      </trkpt>
      <trkpt lat="44.31572" lon="2.66403">
        <ele>748</ele>
        <time>2001-01-01T00:00:00Z</time>
      </trkpt>
      <trkpt lat="44.3156" lon="2.66414">
        <ele>749</ele>
        <time>2001-01-01T00:00:00Z</time>
      </trkpt>
      <trkpt lat="44.31554" lon="2.66423">
        <ele>749</ele>
        <time>2001-01-01T00:00:00Z</time>
      </trkpt>
      <trkpt lat="44.31553" lon="2.66423">
        <ele>749</ele>
        <time>2001-01-01T00:00:00Z</time>
      </trkpt>
      <trkpt lat="44.31538" lon="2.66455">
        <ele>750</ele>
        <time>2001-01-01T00:00:00Z</time>
      </trkpt>
      <trkpt lat="44.31532" lon="2.6648">
        <ele>751</ele>
        <time>2001-01-01T00:00:00Z</time>
      </trkpt>
      <trkpt lat="44.31526" lon="2.66497">
        <ele>752</ele>
        <time>2001-01-01T00:00:00Z</time>
      </trkpt>
      <trkpt lat="44.31518" lon="2.66509">
        <ele>752</ele>
        <time>2001-01-01T00:00:00Z</time>
      </trkpt>
      <trkpt lat="44.31507" lon="2.66518">
        <ele>753</ele>
        <time>2001-01-01T00:00:00Z</time>
      </trkpt>
      <trkpt lat="44.31487" lon="2.66522">
        <ele>754</ele>
        <time>2001-01-01T00:00:00Z</time>
      </trkpt>
      <trkpt lat="44.31475" lon="2.66527">
        <ele>755</ele>
        <time>2001-01-01T00:00:00Z</time>
      </trkpt>
      <trkpt lat="44.31465" lon="2.66538">
        <ele>755</ele>
        <time>2001-01-01T00:00:00Z</time>
      </trkpt>
      <trkpt lat="44.31459" lon="2.66555">
        <ele>756</ele>
        <time>2001-01-01T00:00:00Z</time>
      </trkpt>
      <trkpt lat="44.31458" lon="2.66579">
        <ele>757</ele>
        <time>2001-01-01T00:00:00Z</time>
      </trkpt>
      <trkpt lat="44.31463" lon="2.66592">
        <ele>757</ele>
        <time>2001-01-01T00:00:00Z</time>
      </trkpt>
      <trkpt lat="44.3147" lon="2.66604">
        <ele>758</ele>
        <time>2001-01-01T00:00:00Z</time>
      </trkpt>
      <trkpt lat="44.31511" lon="2.66633">
        <ele>759</ele>
        <time>2001-01-01T00:00:00Z</time>
      </trkpt>
      <trkpt lat="44.31552" lon="2.66662">
        <ele>762</ele>
        <time>2001-01-01T00:00:00Z</time>
      </trkpt>
      <trkpt lat="44.31573" lon="2.66683">
        <ele>761</ele>
        <time>2001-01-01T00:00:00Z</time>
      </trkpt>
      <trkpt lat="44.31795" lon="2.66433">
        <ele>756</ele>
        <time>2001-01-01T00:00:00Z</time>
      </trkpt>
      <trkpt lat="44.31799" lon="2.6643">
        <ele>756</ele>
        <time>2001-01-01T00:00:00Z</time>
      </trkpt>
      <trkpt lat="44.31804" lon="2.66424">
        <ele>755</ele>
        <time>2001-01-01T00:00:00Z</time>
      </trkpt>
      <trkpt lat="44.3181" lon="2.66407">
        <ele>755</ele>
        <time>2001-01-01T00:00:00Z</time>
      </trkpt>
      <trkpt lat="44.31815" lon="2.66373">
        <ele>754</ele>
        <time>2001-01-01T00:00:00Z</time>
      </trkpt>
      <trkpt lat="44.31813" lon="2.66303">
        <ele>753</ele>
        <time>2001-01-01T00:00:00Z</time>
      </trkpt>
      <trkpt lat="44.31818" lon="2.66271">
        <ele>752</ele>
        <time>2001-01-01T00:00:00Z</time>
      </trkpt>
      <trkpt lat="44.31839" lon="2.6617">
        <ele>747</ele>
        <time>2001-01-01T00:00:00Z</time>
      </trkpt>
      <trkpt lat="44.3186" lon="2.66053">
        <ele>740</ele>
        <time>2001-01-01T00:00:00Z</time>
      </trkpt>
      <trkpt lat="44.3186" lon="2.66051">
        <ele>739</ele>
        <time>2001-01-01T00:00:00Z</time>
      </trkpt>
      <trkpt lat="44.31866" lon="2.66016">
        <ele>737</ele>
        <time>2001-01-01T00:00:00Z</time>
      </trkpt>
      <trkpt lat="44.31867" lon="2.6601">
        <ele>737</ele>
        <time>2001-01-01T00:00:00Z</time>
      </trkpt>
      <trkpt lat="44.31874" lon="2.65988">
        <ele>736</ele>
        <time>2001-01-01T00:00:00Z</time>
      </trkpt>
      <trkpt lat="44.31895" lon="2.65939">
        <ele>733</ele>
        <time>2001-01-01T00:00:00Z</time>
      </trkpt>
      <trkpt lat="44.31951" lon="2.6584">
        <ele>726</ele>
        <time>2001-01-01T00:00:00Z</time>
      </trkpt>
      <trkpt lat="44.3197" lon="2.65802">
        <ele>725</ele>
        <time>2001-01-01T00:00:00Z</time>
      </trkpt>
      <trkpt lat="44.3199" lon="2.65765">
        <ele>724</ele>
        <time>2001-01-01T00:00:00Z</time>
      </trkpt>
      <trkpt lat="44.32007" lon="2.65714">
        <ele>722</ele>
        <time>2001-01-01T00:00:00Z</time>
      </trkpt>
      <trkpt lat="44.32035" lon="2.65572">
        <ele>717</ele>
        <time>2001-01-01T00:00:00Z</time>
      </trkpt>
      <trkpt lat="44.32052" lon="2.65475">
        <ele>715</ele>
        <time>2001-01-01T00:00:00Z</time>
      </trkpt>
      <trkpt lat="44.32051" lon="2.65458">
        <ele>714</ele>
        <time>2001-01-01T00:00:00Z</time>
      </trkpt>
      <trkpt lat="44.32053" lon="2.65421">
        <ele>710</ele>
        <time>2001-01-01T00:00:00Z</time>
      </trkpt>
      <trkpt lat="44.32049" lon="2.65319">
        <ele>704</ele>
        <time>2001-01-01T00:00:00Z</time>
      </trkpt>
      <trkpt lat="44.32054" lon="2.65261">
        <ele>700</ele>
        <time>2001-01-01T00:00:00Z</time>
      </trkpt>
      <trkpt lat="44.3206" lon="2.6523">
        <ele>698</ele>
        <time>2001-01-01T00:00:00Z</time>
      </trkpt>
      <trkpt lat="44.3206" lon="2.65223">
        <ele>698</ele>
        <time>2001-01-01T00:00:00Z</time>
      </trkpt>
      <trkpt lat="44.32059" lon="2.65217">
        <ele>697</ele>
        <time>2001-01-01T00:00:00Z</time>
      </trkpt>
      <trkpt lat="44.32056" lon="2.65204">
        <ele>696</ele>
        <time>2001-01-01T00:00:00Z</time>
      </trkpt>
      <trkpt lat="44.32052" lon="2.65197">
        <ele>694</ele>
        <time>2001-01-01T00:00:00Z</time>
      </trkpt>
      <trkpt lat="44.32049" lon="2.65195">
        <ele>693</ele>
        <time>2001-01-01T00:00:00Z</time>
      </trkpt>
      <trkpt lat="44.32053" lon="2.65149">
        <ele>691</ele>
        <time>2001-01-01T00:00:00Z</time>
      </trkpt>
      <trkpt lat="44.32051" lon="2.65124">
        <ele>690</ele>
        <time>2001-01-01T00:00:00Z</time>
      </trkpt>
      <trkpt lat="44.32049" lon="2.65118">
        <ele>689</ele>
        <time>2001-01-01T00:00:00Z</time>
      </trkpt>
      <trkpt lat="44.32045" lon="2.65105">
        <ele>688</ele>
        <time>2001-01-01T00:00:00Z</time>
      </trkpt>
      <trkpt lat="44.32035" lon="2.6509">
        <ele>688</ele>
        <time>2001-01-01T00:00:00Z</time>
      </trkpt>
      <trkpt lat="44.32004" lon="2.65068">
        <ele>687</ele>
        <time>2001-01-01T00:00:00Z</time>
      </trkpt>
      <trkpt lat="44.31993" lon="2.65039">
        <ele>686</ele>
        <time>2001-01-01T00:00:00Z</time>
      </trkpt>
      <trkpt lat="44.31994" lon="2.6502">
        <ele>686</ele>
        <time>2001-01-01T00:00:00Z</time>
      </trkpt>
      <trkpt lat="44.31994" lon="2.65016">
        <ele>685</ele>
        <time>2001-01-01T00:00:00Z</time>
      </trkpt>
      <trkpt lat="44.3201" lon="2.64987">
        <ele>684</ele>
        <time>2001-01-01T00:00:00Z</time>
      </trkpt>
      <trkpt lat="44.32059" lon="2.64939">
        <ele>682</ele>
        <time>2001-01-01T00:00:00Z</time>
      </trkpt>
      <trkpt lat="44.32082" lon="2.64916">
        <ele>681</ele>
        <time>2001-01-01T00:00:00Z</time>
      </trkpt>
      <trkpt lat="44.32095" lon="2.64895">
        <ele>680</ele>
        <time>2001-01-01T00:00:00Z</time>
      </trkpt>
      <trkpt lat="44.32098" lon="2.64886">
        <ele>680</ele>
        <time>2001-01-01T00:00:00Z</time>
      </trkpt>
      <trkpt lat="44.32103" lon="2.64866">
        <ele>680</ele>
        <time>2001-01-01T00:00:00Z</time>
      </trkpt>
      <trkpt lat="44.32114" lon="2.64798">
        <ele>679</ele>
        <time>2001-01-01T00:00:00Z</time>
      </trkpt>
      <trkpt lat="44.32132" lon="2.64683">
        <ele>678</ele>
        <time>2001-01-01T00:00:00Z</time>
      </trkpt>
      <trkpt lat="44.32137" lon="2.64661">
        <ele>678</ele>
        <time>2001-01-01T00:00:00Z</time>
      </trkpt>
      <trkpt lat="44.32137" lon="2.64659">
        <ele>678</ele>
        <time>2001-01-01T00:00:00Z</time>
      </trkpt>
      <trkpt lat="44.3214" lon="2.64645">
        <ele>678</ele>
        <time>2001-01-01T00:00:00Z</time>
      </trkpt>
      <trkpt lat="44.32145" lon="2.64643">
        <ele>678</ele>
        <time>2001-01-01T00:00:00Z</time>
      </trkpt>
      <trkpt lat="44.32152" lon="2.64647">
        <ele>678</ele>
        <time>2001-01-01T00:00:00Z</time>
      </trkpt>
      <trkpt lat="44.32199" lon="2.64655">
        <ele>675</ele>
        <time>2001-01-01T00:00:00Z</time>
      </trkpt>
      <trkpt lat="44.3222" lon="2.64663">
        <ele>672</ele>
        <time>2001-01-01T00:00:00Z</time>
      </trkpt>
      <trkpt lat="44.32236" lon="2.64675">
        <ele>670</ele>
        <time>2001-01-01T00:00:00Z</time>
      </trkpt>
      <trkpt lat="44.32251" lon="2.6469">
        <ele>669</ele>
        <time>2001-01-01T00:00:00Z</time>
      </trkpt>
      <trkpt lat="44.32261" lon="2.64708">
        <ele>668</ele>
        <time>2001-01-01T00:00:00Z</time>
      </trkpt>
      <trkpt lat="44.32267" lon="2.64726">
        <ele>667</ele>
        <time>2001-01-01T00:00:00Z</time>
      </trkpt>
      <trkpt lat="44.32275" lon="2.64771">
        <ele>666</ele>
        <time>2001-01-01T00:00:00Z</time>
      </trkpt>
      <trkpt lat="44.32297" lon="2.64823">
        <ele>665</ele>
        <time>2001-01-01T00:00:00Z</time>
      </trkpt>
      <trkpt lat="44.323" lon="2.64831">
        <ele>664</ele>
        <time>2001-01-01T00:00:00Z</time>
      </trkpt>
      <trkpt lat="44.32307" lon="2.64812">
        <ele>664</ele>
        <time>2001-01-01T00:00:00Z</time>
      </trkpt>
      <trkpt lat="44.32325" lon="2.64776">
        <ele>663</ele>
        <time>2001-01-01T00:00:00Z</time>
      </trkpt>
      <trkpt lat="44.32336" lon="2.64758">
        <ele>662</ele>
        <time>2001-01-01T00:00:00Z</time>
      </trkpt>
      <trkpt lat="44.32346" lon="2.64748">
        <ele>662</ele>
        <time>2001-01-01T00:00:00Z</time>
      </trkpt>
      <trkpt lat="44.32364" lon="2.64743">
        <ele>661</ele>
        <time>2001-01-01T00:00:00Z</time>
      </trkpt>
      <trkpt lat="44.32373" lon="2.64744">
        <ele>660</ele>
        <time>2001-01-01T00:00:00Z</time>
      </trkpt>
      <trkpt lat="44.32374" lon="2.64744">
        <ele>660</ele>
        <time>2001-01-01T00:00:00Z</time>
      </trkpt>
      <trkpt lat="44.32387" lon="2.64746">
        <ele>659</ele>
        <time>2001-01-01T00:00:00Z</time>
      </trkpt>
      <trkpt lat="44.32399" lon="2.6475">
        <ele>658</ele>
        <time>2001-01-01T00:00:00Z</time>
      </trkpt>
      <trkpt lat="44.32441" lon="2.64772">
        <ele>656</ele>
        <time>2001-01-01T00:00:00Z</time>
      </trkpt>
      <trkpt lat="44.325" lon="2.64797">
        <ele>650</ele>
        <time>2001-01-01T00:00:00Z</time>
      </trkpt>
      <trkpt lat="44.32521" lon="2.648">
        <ele>648</ele>
        <time>2001-01-01T00:00:00Z</time>
      </trkpt>
      <trkpt lat="44.32576" lon="2.64802">
        <ele>643</ele>
        <time>2001-01-01T00:00:00Z</time>
      </trkpt>
      <trkpt lat="44.32604" lon="2.64802">
        <ele>640</ele>
        <time>2001-01-01T00:00:00Z</time>
      </trkpt>
      <trkpt lat="44.32616" lon="2.64799">
        <ele>640</ele>
        <time>2001-01-01T00:00:00Z</time>
      </trkpt>
      <trkpt lat="44.32638" lon="2.64785">
        <ele>638</ele>
        <time>2001-01-01T00:00:00Z</time>
      </trkpt>
      <trkpt lat="44.32651" lon="2.64782">
        <ele>637</ele>
        <time>2001-01-01T00:00:00Z</time>
      </trkpt>
      <trkpt lat="44.32704" lon="2.64782">
        <ele>636</ele>
        <time>2001-01-01T00:00:00Z</time>
      </trkpt>
      <trkpt lat="44.32721" lon="2.64789">
        <ele>637</ele>
        <time>2001-01-01T00:00:00Z</time>
      </trkpt>
      <trkpt lat="44.32734" lon="2.64785">
        <ele>638</ele>
        <time>2001-01-01T00:00:00Z</time>
      </trkpt>
      <trkpt lat="44.32753" lon="2.64789">
        <ele>640</ele>
        <time>2001-01-01T00:00:00Z</time>
      </trkpt>
      <trkpt lat="44.32779" lon="2.6479">
        <ele>644</ele>
        <time>2001-01-01T00:00:00Z</time>
      </trkpt>
      <trkpt lat="44.32797" lon="2.64792">
        <ele>646</ele>
        <time>2001-01-01T00:00:00Z</time>
      </trkpt>
      <trkpt lat="44.32818" lon="2.64799">
        <ele>648</ele>
        <time>2001-01-01T00:00:00Z</time>
      </trkpt>
      <trkpt lat="44.3288" lon="2.64808">
        <ele>652</ele>
        <time>2001-01-01T00:00:00Z</time>
      </trkpt>
      <trkpt lat="44.32957" lon="2.64825">
        <ele>654</ele>
        <time>2001-01-01T00:00:00Z</time>
      </trkpt>
      <trkpt lat="44.33043" lon="2.64847">
        <ele>657</ele>
        <time>2001-01-01T00:00:00Z</time>
      </trkpt>
      <trkpt lat="44.33055" lon="2.64848">
        <ele>657</ele>
        <time>2001-01-01T00:00:00Z</time>
      </trkpt>
      <trkpt lat="44.33064" lon="2.64846">
        <ele>658</ele>
        <time>2001-01-01T00:00:00Z</time>
      </trkpt>
      <trkpt lat="44.33067" lon="2.64838">
        <ele>659</ele>
        <time>2001-01-01T00:00:00Z</time>
      </trkpt>
      <trkpt lat="44.33068" lon="2.6483">
        <ele>659</ele>
        <time>2001-01-01T00:00:00Z</time>
      </trkpt>
      <trkpt lat="44.33077" lon="2.64746">
        <ele>665</ele>
        <time>2001-01-01T00:00:00Z</time>
      </trkpt>
      <trkpt lat="44.33093" lon="2.64686">
        <ele>667</ele>
        <time>2001-01-01T00:00:00Z</time>
      </trkpt>
      <trkpt lat="44.33098" lon="2.64652">
        <ele>668</ele>
        <time>2001-01-01T00:00:00Z</time>
      </trkpt>
      <trkpt lat="44.33104" lon="2.64624">
        <ele>668</ele>
        <time>2001-01-01T00:00:00Z</time>
      </trkpt>
      <trkpt lat="44.33106" lon="2.64595">
        <ele>669</ele>
        <time>2001-01-01T00:00:00Z</time>
      </trkpt>
      <trkpt lat="44.33108" lon="2.64585">
        <ele>669</ele>
        <time>2001-01-01T00:00:00Z</time>
      </trkpt>
      <trkpt lat="44.33119" lon="2.64566">
        <ele>669</ele>
        <time>2001-01-01T00:00:00Z</time>
      </trkpt>
      <trkpt lat="44.33138" lon="2.6451">
        <ele>668</ele>
        <time>2001-01-01T00:00:00Z</time>
      </trkpt>
      <trkpt lat="44.33155" lon="2.64472">
        <ele>667</ele>
        <time>2001-01-01T00:00:00Z</time>
      </trkpt>
      <trkpt lat="44.33174" lon="2.64396">
        <ele>666</ele>
        <time>2001-01-01T00:00:00Z</time>
      </trkpt>
      <trkpt lat="44.33195" lon="2.64335">
        <ele>664</ele>
        <time>2001-01-01T00:00:00Z</time>
      </trkpt>
      <trkpt lat="44.33223" lon="2.64268">
        <ele>662</ele>
        <time>2001-01-01T00:00:00Z</time>
      </trkpt>
      <trkpt lat="44.33248" lon="2.64203">
        <ele>661</ele>
        <time>2001-01-01T00:00:00Z</time>
      </trkpt>
      <trkpt lat="44.33252" lon="2.64195">
        <ele>661</ele>
        <time>2001-01-01T00:00:00Z</time>
      </trkpt>
      <trkpt lat="44.33259" lon="2.64198">
        <ele>661</ele>
        <time>2001-01-01T00:00:00Z</time>
      </trkpt>
      <trkpt lat="44.33313" lon="2.64243">
        <ele>659</ele>
        <time>2001-01-01T00:00:00Z</time>
      </trkpt>
      <trkpt lat="44.33385" lon="2.64295">
        <ele>660</ele>
        <time>2001-01-01T00:00:00Z</time>
      </trkpt>
      <trkpt lat="44.33397" lon="2.64298">
        <ele>660</ele>
        <time>2001-01-01T00:00:00Z</time>
      </trkpt>
      <trkpt lat="44.33403" lon="2.64294">
        <ele>660</ele>
        <time>2001-01-01T00:00:00Z</time>
      </trkpt>
      <trkpt lat="44.33447" lon="2.64246">
        <ele>659</ele>
        <time>2001-01-01T00:00:00Z</time>
      </trkpt>
      <trkpt lat="44.33463" lon="2.64237">
        <ele>658</ele>
        <time>2001-01-01T00:00:00Z</time>
      </trkpt>
      <trkpt lat="44.33472" lon="2.64237">
        <ele>658</ele>
        <time>2001-01-01T00:00:00Z</time>
      </trkpt>
      <trkpt lat="44.33525" lon="2.64251">
        <ele>652</ele>
        <time>2001-01-01T00:00:00Z</time>
      </trkpt>
      <trkpt lat="44.33538" lon="2.64252">
        <ele>650</ele>
        <time>2001-01-01T00:00:00Z</time>
      </trkpt>
      <trkpt lat="44.33614" lon="2.64246">
        <ele>642</ele>
        <time>2001-01-01T00:00:00Z</time>
      </trkpt>
      <trkpt lat="44.33635" lon="2.64236">
        <ele>642</ele>
        <time>2001-01-01T00:00:00Z</time>
      </trkpt>
      <trkpt lat="44.33651" lon="2.64222">
        <ele>644</ele>
        <time>2001-01-01T00:00:00Z</time>
      </trkpt>
      <trkpt lat="44.33663" lon="2.64205">
        <ele>646</ele>
        <time>2001-01-01T00:00:00Z</time>
      </trkpt>
      <trkpt lat="44.33683" lon="2.64181">
        <ele>648</ele>
        <time>2001-01-01T00:00:00Z</time>
      </trkpt>
      <trkpt lat="44.33674" lon="2.64202">
        <ele>647</ele>
        <time>2001-01-01T00:00:00Z</time>
      </trkpt>
      <trkpt lat="44.33666" lon="2.64223">
        <ele>647</ele>
        <time>2001-01-01T00:00:00Z</time>
      </trkpt>
      <trkpt lat="44.33655" lon="2.6427">
        <ele>647</ele>
        <time>2001-01-01T00:00:00Z</time>
      </trkpt>
      <trkpt lat="44.33637" lon="2.64422">
        <ele>651</ele>
        <time>2001-01-01T00:00:00Z</time>
      </trkpt>
      <trkpt lat="44.33629" lon="2.64463">
        <ele>651</ele>
        <time>2001-01-01T00:00:00Z</time>
      </trkpt>
      <trkpt lat="44.33622" lon="2.64485">
        <ele>651</ele>
        <time>2001-01-01T00:00:00Z</time>
      </trkpt>
      <trkpt lat="44.33589" lon="2.64503">
        <ele>648</ele>
        <time>2001-01-01T00:00:00Z</time>
      </trkpt>
      <trkpt lat="44.33571" lon="2.64555">
        <ele>649</ele>
        <time>2001-01-01T00:00:00Z</time>
      </trkpt>
      <trkpt lat="44.33554" lon="2.64591">
        <ele>653</ele>
        <time>2001-01-01T00:00:00Z</time>
      </trkpt>
      <trkpt lat="44.33538" lon="2.64637">
        <ele>656</ele>
        <time>2001-01-01T00:00:00Z</time>
      </trkpt>
      <trkpt lat="44.33527" lon="2.64709">
        <ele>660</ele>
        <time>2001-01-01T00:00:00Z</time>
      </trkpt>
      <trkpt lat="44.33509" lon="2.64777">
        <ele>662</ele>
        <time>2001-01-01T00:00:00Z</time>
      </trkpt>
      <trkpt lat="44.33492" lon="2.64832">
        <ele>664</ele>
        <time>2001-01-01T00:00:00Z</time>
      </trkpt>
      <trkpt lat="44.33471" lon="2.64925">
        <ele>666</ele>
        <time>2001-01-01T00:00:00Z</time>
      </trkpt>
      <trkpt lat="44.33451" lon="2.65011">
        <ele>668</ele>
        <time>2001-01-01T00:00:00Z</time>
      </trkpt>
      <trkpt lat="44.33449" lon="2.65016">
        <ele>668</ele>
        <time>2001-01-01T00:00:00Z</time>
      </trkpt>
      <trkpt lat="44.33457" lon="2.65022">
        <ele>668</ele>
        <time>2001-01-01T00:00:00Z</time>
      </trkpt>
      <trkpt lat="44.33483" lon="2.65034">
        <ele>669</ele>
        <time>2001-01-01T00:00:00Z</time>
      </trkpt>
      <trkpt lat="44.33513" lon="2.65053">
        <ele>670</ele>
        <time>2001-01-01T00:00:00Z</time>
      </trkpt>
      <trkpt lat="44.33574" lon="2.65098">
        <ele>671</ele>
        <time>2001-01-01T00:00:00Z</time>
      </trkpt>
      <trkpt lat="44.33602" lon="2.65116">
        <ele>672</ele>
        <time>2001-01-01T00:00:00Z</time>
      </trkpt>
      <trkpt lat="44.33613" lon="2.65119">
        <ele>672</ele>
        <time>2001-01-01T00:00:00Z</time>
      </trkpt>
      <trkpt lat="44.33614" lon="2.65118">
        <ele>672</ele>
        <time>2001-01-01T00:00:00Z</time>
      </trkpt>
      <trkpt lat="44.3365" lon="2.65086">
        <ele>672</ele>
        <time>2001-01-01T00:00:00Z</time>
      </trkpt>
      <trkpt lat="44.33709" lon="2.65023">
        <ele>670</ele>
        <time>2001-01-01T00:00:00Z</time>
      </trkpt>
      <trkpt lat="44.33712" lon="2.65019">
        <ele>670</ele>
        <time>2001-01-01T00:00:00Z</time>
      </trkpt>
      <trkpt lat="44.33723" lon="2.65005">
        <ele>669</ele>
        <time>2001-01-01T00:00:00Z</time>
      </trkpt>
      <trkpt lat="44.33734" lon="2.64983">
        <ele>668</ele>
        <time>2001-01-01T00:00:00Z</time>
      </trkpt>
      <trkpt lat="44.33747" lon="2.64947">
        <ele>668</ele>
        <time>2001-01-01T00:00:00Z</time>
      </trkpt>
      <trkpt lat="44.33766" lon="2.64885">
        <ele>668</ele>
        <time>2001-01-01T00:00:00Z</time>
      </trkpt>
      <trkpt lat="44.33777" lon="2.64856">
        <ele>668</ele>
        <time>2001-01-01T00:00:00Z</time>
      </trkpt>
      <trkpt lat="44.33799" lon="2.64813">
        <ele>669</ele>
        <time>2001-01-01T00:00:00Z</time>
      </trkpt>
      <trkpt lat="44.33825" lon="2.6477">
        <ele>670</ele>
        <time>2001-01-01T00:00:00Z</time>
      </trkpt>
      <trkpt lat="44.33828" lon="2.64764">
        <ele>670</ele>
        <time>2001-01-01T00:00:00Z</time>
      </trkpt>
      <trkpt lat="44.33829" lon="2.64762">
        <ele>670</ele>
        <time>2001-01-01T00:00:00Z</time>
      </trkpt>
      <trkpt lat="44.33846" lon="2.64724">
        <ele>670</ele>
        <time>2001-01-01T00:00:00Z</time>
      </trkpt>
      <trkpt lat="44.33916" lon="2.64552">
        <ele>669</ele>
        <time>2001-01-01T00:00:00Z</time>
      </trkpt>
      <trkpt lat="44.33963" lon="2.64419">
        <ele>666</ele>
        <time>2001-01-01T00:00:00Z</time>
      </trkpt>
      <trkpt lat="44.3397" lon="2.64386">
        <ele>666</ele>
        <time>2001-01-01T00:00:00Z</time>
      </trkpt>
      <trkpt lat="44.33978" lon="2.64362">
        <ele>666</ele>
        <time>2001-01-01T00:00:00Z</time>
      </trkpt>
      <trkpt lat="44.34" lon="2.64318">
        <ele>664</ele>
        <time>2001-01-01T00:00:00Z</time>
      </trkpt>
      <trkpt lat="44.34039" lon="2.64251">
        <ele>663</ele>
        <time>2001-01-01T00:00:00Z</time>
      </trkpt>
      <trkpt lat="44.34047" lon="2.64237">
        <ele>663</ele>
        <time>2001-01-01T00:00:00Z</time>
      </trkpt>
      <trkpt lat="44.34054" lon="2.64227">
        <ele>662</ele>
        <time>2001-01-01T00:00:00Z</time>
      </trkpt>
      <trkpt lat="44.34077" lon="2.6418">
        <ele>662</ele>
        <time>2001-01-01T00:00:00Z</time>
      </trkpt>
      <trkpt lat="44.34085" lon="2.6416">
        <ele>662</ele>
        <time>2001-01-01T00:00:00Z</time>
      </trkpt>
      <trkpt lat="44.34108" lon="2.64076">
        <ele>660</ele>
        <time>2001-01-01T00:00:00Z</time>
      </trkpt>
      <trkpt lat="44.34137" lon="2.63969">
        <ele>658</ele>
        <time>2001-01-01T00:00:00Z</time>
      </trkpt>
      <trkpt lat="44.3414" lon="2.6395">
        <ele>658</ele>
        <time>2001-01-01T00:00:00Z</time>
      </trkpt>
      <trkpt lat="44.34142" lon="2.63941">
        <ele>658</ele>
        <time>2001-01-01T00:00:00Z</time>
      </trkpt>
      <trkpt lat="44.34142" lon="2.63939">
        <ele>658</ele>
        <time>2001-01-01T00:00:00Z</time>
      </trkpt>
      <trkpt lat="44.34147" lon="2.63904">
        <ele>657</ele>
        <time>2001-01-01T00:00:00Z</time>
      </trkpt>
      <trkpt lat="44.34152" lon="2.63878">
        <ele>656</ele>
        <time>2001-01-01T00:00:00Z</time>
      </trkpt>
      <trkpt lat="44.34158" lon="2.63858">
        <ele>656</ele>
        <time>2001-01-01T00:00:00Z</time>
      </trkpt>
      <trkpt lat="44.34178" lon="2.63807">
        <ele>655</ele>
        <time>2001-01-01T00:00:00Z</time>
      </trkpt>
      <trkpt lat="44.34185" lon="2.63782">
        <ele>655</ele>
        <time>2001-01-01T00:00:00Z</time>
      </trkpt>
      <trkpt lat="44.34205" lon="2.63676">
        <ele>654</ele>
        <time>2001-01-01T00:00:00Z</time>
      </trkpt>
      <trkpt lat="44.34219" lon="2.63617">
        <ele>652</ele>
        <time>2001-01-01T00:00:00Z</time>
      </trkpt>
      <trkpt lat="44.34222" lon="2.63603">
        <ele>652</ele>
        <time>2001-01-01T00:00:00Z</time>
      </trkpt>
      <trkpt lat="44.34225" lon="2.63592">
        <ele>652</ele>
        <time>2001-01-01T00:00:00Z</time>
      </trkpt>
      <trkpt lat="44.34235" lon="2.63569">
        <ele>651</ele>
        <time>2001-01-01T00:00:00Z</time>
      </trkpt>
      <trkpt lat="44.34296" lon="2.63453">
        <ele>644</ele>
        <time>2001-01-01T00:00:00Z</time>
      </trkpt>
      <trkpt lat="44.34303" lon="2.63436">
        <ele>642</ele>
        <time>2001-01-01T00:00:00Z</time>
      </trkpt>
      <trkpt lat="44.34309" lon="2.63408">
        <ele>641</ele>
        <time>2001-01-01T00:00:00Z</time>
      </trkpt>
      <trkpt lat="44.34315" lon="2.63384">
        <ele>639</ele>
        <time>2001-01-01T00:00:00Z</time>
      </trkpt>
      <trkpt lat="44.34317" lon="2.63351">
        <ele>637</ele>
        <time>2001-01-01T00:00:00Z</time>
      </trkpt>
      <trkpt lat="44.34317" lon="2.63333">
        <ele>637</ele>
        <time>2001-01-01T00:00:00Z</time>
      </trkpt>
      <trkpt lat="44.34318" lon="2.63305">
        <ele>636</ele>
        <time>2001-01-01T00:00:00Z</time>
      </trkpt>
      <trkpt lat="44.34315" lon="2.6328">
        <ele>635</ele>
        <time>2001-01-01T00:00:00Z</time>
      </trkpt>
      <trkpt lat="44.34309" lon="2.63269">
        <ele>635</ele>
        <time>2001-01-01T00:00:00Z</time>
      </trkpt>
      <trkpt lat="44.3427" lon="2.6322">
        <ele>638</ele>
        <time>2001-01-01T00:00:00Z</time>
      </trkpt>
      <trkpt lat="44.34254" lon="2.63206">
        <ele>639</ele>
        <time>2001-01-01T00:00:00Z</time>
      </trkpt>
      <trkpt lat="44.34242" lon="2.63197">
        <ele>640</ele>
        <time>2001-01-01T00:00:00Z</time>
      </trkpt>
      <trkpt lat="44.34211" lon="2.63173">
        <ele>641</ele>
        <time>2001-01-01T00:00:00Z</time>
      </trkpt>
      <trkpt lat="44.34136" lon="2.63143">
        <ele>645</ele>
        <time>2001-01-01T00:00:00Z</time>
      </trkpt>
      <trkpt lat="44.34099" lon="2.63118">
        <ele>647</ele>
        <time>2001-01-01T00:00:00Z</time>
      </trkpt>
      <trkpt lat="44.34073" lon="2.63099">
        <ele>649</ele>
        <time>2001-01-01T00:00:00Z</time>
      </trkpt>
      <trkpt lat="44.34053" lon="2.63081">
        <ele>650</ele>
        <time>2001-01-01T00:00:00Z</time>
      </trkpt>
      <trkpt lat="44.3404" lon="2.63069">
        <ele>651</ele>
        <time>2001-01-01T00:00:00Z</time>
      </trkpt>
      <trkpt lat="44.33986" lon="2.63039">
        <ele>654</ele>
        <time>2001-01-01T00:00:00Z</time>
      </trkpt>
      <trkpt lat="44.33952" lon="2.6301">
        <ele>656</ele>
        <time>2001-01-01T00:00:00Z</time>
      </trkpt>
      <trkpt lat="44.33949" lon="2.63007">
        <ele>657</ele>
        <time>2001-01-01T00:00:00Z</time>
      </trkpt>
      <trkpt lat="44.3392" lon="2.62983">
        <ele>659</ele>
        <time>2001-01-01T00:00:00Z</time>
      </trkpt>
      <trkpt lat="44.33889" lon="2.62952">
        <ele>661</ele>
        <time>2001-01-01T00:00:00Z</time>
      </trkpt>
      <trkpt lat="44.33884" lon="2.62947">
        <ele>661</ele>
        <time>2001-01-01T00:00:00Z</time>
      </trkpt>
      <trkpt lat="44.33877" lon="2.62938">
        <ele>660</ele>
        <time>2001-01-01T00:00:00Z</time>
      </trkpt>
      <trkpt lat="44.33879" lon="2.62934">
        <ele>660</ele>
        <time>2001-01-01T00:00:00Z</time>
      </trkpt>
      <trkpt lat="44.33886" lon="2.62921">
        <ele>661</ele>
        <time>2001-01-01T00:00:00Z</time>
      </trkpt>
      <trkpt lat="44.33884" lon="2.62915">
        <ele>661</ele>
        <time>2001-01-01T00:00:00Z</time>
      </trkpt>
      <trkpt lat="44.33885" lon="2.62891">
        <ele>660</ele>
        <time>2001-01-01T00:00:00Z</time>
      </trkpt>
      <trkpt lat="44.33884" lon="2.62875">
        <ele>661</ele>
        <time>2001-01-01T00:00:00Z</time>
      </trkpt>
      <trkpt lat="44.33883" lon="2.6286">
        <ele>661</ele>
        <time>2001-01-01T00:00:00Z</time>
      </trkpt>
      <trkpt lat="44.33877" lon="2.62844">
        <ele>662</ele>
        <time>2001-01-01T00:00:00Z</time>
      </trkpt>
      <trkpt lat="44.33838" lon="2.62775">
        <ele>664</ele>
        <time>2001-01-01T00:00:00Z</time>
      </trkpt>
      <trkpt lat="44.33822" lon="2.62746">
        <ele>665</ele>
        <time>2001-01-01T00:00:00Z</time>
      </trkpt>
      <trkpt lat="44.33817" lon="2.62737">
        <ele>666</ele>
        <time>2001-01-01T00:00:00Z</time>
      </trkpt>
      <trkpt lat="44.338" lon="2.62704">
        <ele>667</ele>
        <time>2001-01-01T00:00:00Z</time>
      </trkpt>
      <trkpt lat="44.33798" lon="2.627">
        <ele>667</ele>
        <time>2001-01-01T00:00:00Z</time>
      </trkpt>
      <trkpt lat="44.33793" lon="2.62696">
        <ele>667</ele>
        <time>2001-01-01T00:00:00Z</time>
      </trkpt>
      <trkpt lat="44.33789" lon="2.62693">
        <ele>667</ele>
        <time>2001-01-01T00:00:00Z</time>
      </trkpt>
      <trkpt lat="44.3378" lon="2.62692">
        <ele>667</ele>
        <time>2001-01-01T00:00:00Z</time>
      </trkpt>
      <trkpt lat="44.33758" lon="2.62692">
        <ele>667</ele>
        <time>2001-01-01T00:00:00Z</time>
      </trkpt>
      <trkpt lat="44.33736" lon="2.6269">
        <ele>666</ele>
        <time>2001-01-01T00:00:00Z</time>
      </trkpt>
      <trkpt lat="44.33733" lon="2.6269">
        <ele>666</ele>
        <time>2001-01-01T00:00:00Z</time>
      </trkpt>
      <trkpt lat="44.33717" lon="2.62689">
        <ele>666</ele>
        <time>2001-01-01T00:00:00Z</time>
      </trkpt>
      <trkpt lat="44.33708" lon="2.62686">
        <ele>666</ele>
        <time>2001-01-01T00:00:00Z</time>
      </trkpt>
      <trkpt lat="44.33706" lon="2.62685">
        <ele>666</ele>
        <time>2001-01-01T00:00:00Z</time>
      </trkpt>
      <trkpt lat="44.33699" lon="2.62681">
        <ele>666</ele>
        <time>2001-01-01T00:00:00Z</time>
      </trkpt>
      <trkpt lat="44.3368" lon="2.62672">
        <ele>666</ele>
        <time>2001-01-01T00:00:00Z</time>
      </trkpt>
      <trkpt lat="44.33674" lon="2.6267">
        <ele>665</ele>
        <time>2001-01-01T00:00:00Z</time>
      </trkpt>
      <trkpt lat="44.3367" lon="2.62667">
        <ele>665</ele>
        <time>2001-01-01T00:00:00Z</time>
      </trkpt>
      <trkpt lat="44.33661" lon="2.6266">
        <ele>665</ele>
        <time>2001-01-01T00:00:00Z</time>
      </trkpt>
      <trkpt lat="44.33658" lon="2.62656">
        <ele>665</ele>
        <time>2001-01-01T00:00:00Z</time>
      </trkpt>
      <trkpt lat="44.33657" lon="2.62654">
        <ele>665</ele>
        <time>2001-01-01T00:00:00Z</time>
      </trkpt>
      <trkpt lat="44.33658" lon="2.62648">
        <ele>665</ele>
        <time>2001-01-01T00:00:00Z</time>
      </trkpt>
      <trkpt lat="44.33665" lon="2.62598">
        <ele>664</ele>
        <time>2001-01-01T00:00:00Z</time>
      </trkpt>
      <trkpt lat="44.33662" lon="2.62566">
        <ele>662</ele>
        <time>2001-01-01T00:00:00Z</time>
      </trkpt>
      <trkpt lat="44.33662" lon="2.62558">
        <ele>662</ele>
        <time>2001-01-01T00:00:00Z</time>
      </trkpt>
      <trkpt lat="44.3366" lon="2.62542">
        <ele>662</ele>
        <time>2001-01-01T00:00:00Z</time>
      </trkpt>
      <trkpt lat="44.33655" lon="2.62484">
        <ele>659</ele>
        <time>2001-01-01T00:00:00Z</time>
      </trkpt>
      <trkpt lat="44.33651" lon="2.62435">
        <ele>656</ele>
        <time>2001-01-01T00:00:00Z</time>
      </trkpt>
      <trkpt lat="44.33651" lon="2.62426">
        <ele>656</ele>
        <time>2001-01-01T00:00:00Z</time>
      </trkpt>
      <trkpt lat="44.33649" lon="2.62413">
        <ele>655</ele>
        <time>2001-01-01T00:00:00Z</time>
      </trkpt>
      <trkpt lat="44.33647" lon="2.62387">
        <ele>654</ele>
        <time>2001-01-01T00:00:00Z</time>
      </trkpt>
      <trkpt lat="44.33649" lon="2.62366">
        <ele>653</ele>
        <time>2001-01-01T00:00:00Z</time>
      </trkpt>
      <trkpt lat="44.33652" lon="2.62343">
        <ele>652</ele>
        <time>2001-01-01T00:00:00Z</time>
      </trkpt>
      <trkpt lat="44.33657" lon="2.62323">
        <ele>650</ele>
        <time>2001-01-01T00:00:00Z</time>
      </trkpt>
      <trkpt lat="44.33703" lon="2.62163">
        <ele>640</ele>
        <time>2001-01-01T00:00:00Z</time>
      </trkpt>
      <trkpt lat="44.33706" lon="2.62154">
        <ele>640</ele>
        <time>2001-01-01T00:00:00Z</time>
      </trkpt>
      <trkpt lat="44.33708" lon="2.62144">
        <ele>640</ele>
        <time>2001-01-01T00:00:00Z</time>
      </trkpt>
      <trkpt lat="44.33708" lon="2.62134">
        <ele>639</ele>
        <time>2001-01-01T00:00:00Z</time>
      </trkpt>
      <trkpt lat="44.33708" lon="2.62121">
        <ele>638</ele>
        <time>2001-01-01T00:00:00Z</time>
      </trkpt>
      <trkpt lat="44.337" lon="2.6205">
        <ele>635</ele>
        <time>2001-01-01T00:00:00Z</time>
      </trkpt>
      <trkpt lat="44.33699" lon="2.62036">
        <ele>634</ele>
        <time>2001-01-01T00:00:00Z</time>
      </trkpt>
      <trkpt lat="44.33697" lon="2.62019">
        <ele>634</ele>
        <time>2001-01-01T00:00:00Z</time>
      </trkpt>
      <trkpt lat="44.33695" lon="2.6201">
        <ele>633</ele>
        <time>2001-01-01T00:00:00Z</time>
      </trkpt>
      <trkpt lat="44.33694" lon="2.62001">
        <ele>633</ele>
        <time>2001-01-01T00:00:00Z</time>
      </trkpt>
      <trkpt lat="44.33688" lon="2.61978">
        <ele>632</ele>
        <time>2001-01-01T00:00:00Z</time>
      </trkpt>
      <trkpt lat="44.33681" lon="2.61961">
        <ele>632</ele>
        <time>2001-01-01T00:00:00Z</time>
      </trkpt>
      <trkpt lat="44.33671" lon="2.61943">
        <ele>631</ele>
        <time>2001-01-01T00:00:00Z</time>
      </trkpt>
      <trkpt lat="44.33655" lon="2.61926">
        <ele>630</ele>
        <time>2001-01-01T00:00:00Z</time>
      </trkpt>
      <trkpt lat="44.33568" lon="2.61869">
        <ele>626</ele>
        <time>2001-01-01T00:00:00Z</time>
      </trkpt>
      <trkpt lat="44.33548" lon="2.61845">
        <ele>624</ele>
        <time>2001-01-01T00:00:00Z</time>
      </trkpt>
      <trkpt lat="44.33535" lon="2.61807">
        <ele>622</ele>
        <time>2001-01-01T00:00:00Z</time>
      </trkpt>
      <trkpt lat="44.3353" lon="2.61767">
        <ele>620</ele>
        <time>2001-01-01T00:00:00Z</time>
      </trkpt>
      <trkpt lat="44.33542" lon="2.61663">
        <ele>614</ele>
        <time>2001-01-01T00:00:00Z</time>
      </trkpt>
      <trkpt lat="44.33542" lon="2.61662">
        <ele>614</ele>
        <time>2001-01-01T00:00:00Z</time>
      </trkpt>
      <trkpt lat="44.33579" lon="2.61524">
        <ele>609</ele>
        <time>2001-01-01T00:00:00Z</time>
      </trkpt>
      <trkpt lat="44.33615" lon="2.61415">
        <ele>604</ele>
        <time>2001-01-01T00:00:00Z</time>
      </trkpt>
      <trkpt lat="44.33617" lon="2.61407">
        <ele>604</ele>
        <time>2001-01-01T00:00:00Z</time>
      </trkpt>
      <trkpt lat="44.33614" lon="2.61403">
        <ele>603</ele>
        <time>2001-01-01T00:00:00Z</time>
      </trkpt>
      <trkpt lat="44.33632" lon="2.61348">
        <ele>601</ele>
        <time>2001-01-01T00:00:00Z</time>
      </trkpt>
      <trkpt lat="44.33647" lon="2.61309">
        <ele>600</ele>
        <time>2001-01-01T00:00:00Z</time>
      </trkpt>
      <trkpt lat="44.33652" lon="2.61308">
        <ele>600</ele>
        <time>2001-01-01T00:00:00Z</time>
      </trkpt>
      <trkpt lat="44.33672" lon="2.61251">
        <ele>599</ele>
        <time>2001-01-01T00:00:00Z</time>
      </trkpt>
      <trkpt lat="44.33675" lon="2.61244">
        <ele>599</ele>
        <time>2001-01-01T00:00:00Z</time>
      </trkpt>
      <trkpt lat="44.33677" lon="2.61216">
        <ele>599</ele>
        <time>2001-01-01T00:00:00Z</time>
      </trkpt>
      <trkpt lat="44.33675" lon="2.6121">
        <ele>598</ele>
        <time>2001-01-01T00:00:00Z</time>
      </trkpt>
      <trkpt lat="44.33672" lon="2.61199">
        <ele>598</ele>
        <time>2001-01-01T00:00:00Z</time>
      </trkpt>
      <trkpt lat="44.3365" lon="2.61165">
        <ele>596</ele>
        <time>2001-01-01T00:00:00Z</time>
      </trkpt>
      <trkpt lat="44.33646" lon="2.61166">
        <ele>596</ele>
        <time>2001-01-01T00:00:00Z</time>
      </trkpt>
      <trkpt lat="44.33642" lon="2.61156">
        <ele>595</ele>
        <time>2001-01-01T00:00:00Z</time>
      </trkpt>
      <trkpt lat="44.33636" lon="2.61136">
        <ele>593</ele>
        <time>2001-01-01T00:00:00Z</time>
      </trkpt>
      <trkpt lat="44.33632" lon="2.61086">
        <ele>591</ele>
        <time>2001-01-01T00:00:00Z</time>
      </trkpt>
      <trkpt lat="44.33626" lon="2.61072">
        <ele>590</ele>
        <time>2001-01-01T00:00:00Z</time>
      </trkpt>
      <trkpt lat="44.33614" lon="2.61059">
        <ele>590</ele>
        <time>2001-01-01T00:00:00Z</time>
      </trkpt>
      <trkpt lat="44.33603" lon="2.61048">
        <ele>590</ele>
        <time>2001-01-01T00:00:00Z</time>
      </trkpt>
      <trkpt lat="44.33605" lon="2.61044">
        <ele>590</ele>
        <time>2001-01-01T00:00:00Z</time>
      </trkpt>
      <trkpt lat="44.33586" lon="2.61029">
        <ele>591</ele>
        <time>2001-01-01T00:00:00Z</time>
      </trkpt>
      <trkpt lat="44.33584" lon="2.61029">
        <ele>591</ele>
        <time>2001-01-01T00:00:00Z</time>
      </trkpt>
      <trkpt lat="44.33579" lon="2.61025">
        <ele>591</ele>
        <time>2001-01-01T00:00:00Z</time>
      </trkpt>
      <trkpt lat="44.33579" lon="2.61024">
        <ele>591</ele>
        <time>2001-01-01T00:00:00Z</time>
      </trkpt>
      <trkpt lat="44.33575" lon="2.61021">
        <ele>592</ele>
        <time>2001-01-01T00:00:00Z</time>
      </trkpt>
      <trkpt lat="44.33571" lon="2.61013">
        <ele>592</ele>
        <time>2001-01-01T00:00:00Z</time>
      </trkpt>
      <trkpt lat="44.33569" lon="2.6101">
        <ele>592</ele>
        <time>2001-01-01T00:00:00Z</time>
      </trkpt>
      <trkpt lat="44.33551" lon="2.6096">
        <ele>596</ele>
        <time>2001-01-01T00:00:00Z</time>
      </trkpt>
      <trkpt lat="44.33543" lon="2.60928">
        <ele>597</ele>
        <time>2001-01-01T00:00:00Z</time>
      </trkpt>
      <trkpt lat="44.33538" lon="2.60908">
        <ele>597</ele>
        <time>2001-01-01T00:00:00Z</time>
      </trkpt>
      <trkpt lat="44.33537" lon="2.60902">
        <ele>597</ele>
        <time>2001-01-01T00:00:00Z</time>
      </trkpt>
      <trkpt lat="44.33533" lon="2.60883">
        <ele>598</ele>
        <time>2001-01-01T00:00:00Z</time>
      </trkpt>
      <trkpt lat="44.3352" lon="2.6085">
        <ele>599</ele>
        <time>2001-01-01T00:00:00Z</time>
      </trkpt>
      <trkpt lat="44.33512" lon="2.60782">
        <ele>598</ele>
        <time>2001-01-01T00:00:00Z</time>
      </trkpt>
      <trkpt lat="44.33511" lon="2.60775">
        <ele>598</ele>
        <time>2001-01-01T00:00:00Z</time>
      </trkpt>
      <trkpt lat="44.33508" lon="2.60765">
        <ele>598</ele>
        <time>2001-01-01T00:00:00Z</time>
      </trkpt>
      <trkpt lat="44.33499" lon="2.60756">
        <ele>598</ele>
        <time>2001-01-01T00:00:00Z</time>
      </trkpt>
      <trkpt lat="44.3349" lon="2.60751">
        <ele>599</ele>
        <time>2001-01-01T00:00:00Z</time>
      </trkpt>
      <trkpt lat="44.33477" lon="2.60745">
        <ele>600</ele>
        <time>2001-01-01T00:00:00Z</time>
      </trkpt>
      <trkpt lat="44.33467" lon="2.60735">
        <ele>600</ele>
        <time>2001-01-01T00:00:00Z</time>
      </trkpt>
      <trkpt lat="44.3346" lon="2.60721">
        <ele>601</ele>
        <time>2001-01-01T00:00:00Z</time>
      </trkpt>
      <trkpt lat="44.33455" lon="2.60704">
        <ele>602</ele>
        <time>2001-01-01T00:00:00Z</time>
      </trkpt>
      <trkpt lat="44.33449" lon="2.60663">
        <ele>601</ele>
        <time>2001-01-01T00:00:00Z</time>
      </trkpt>
      <trkpt lat="44.33445" lon="2.60637">
        <ele>600</ele>
        <time>2001-01-01T00:00:00Z</time>
      </trkpt>
      <trkpt lat="44.33443" lon="2.60626">
        <ele>600</ele>
        <time>2001-01-01T00:00:00Z</time>
      </trkpt>
      <trkpt lat="44.33442" lon="2.60623">
        <ele>600</ele>
        <time>2001-01-01T00:00:00Z</time>
      </trkpt>
      <trkpt lat="44.33442" lon="2.60615">
        <ele>600</ele>
        <time>2001-01-01T00:00:00Z</time>
      </trkpt>
      <trkpt lat="44.33433" lon="2.60615">
        <ele>601</ele>
        <time>2001-01-01T00:00:00Z</time>
      </trkpt>
      <trkpt lat="44.3341" lon="2.60618">
        <ele>602</ele>
        <time>2001-01-01T00:00:00Z</time>
      </trkpt>
      <trkpt lat="44.33387" lon="2.60608">
        <ele>604</ele>
        <time>2001-01-01T00:00:00Z</time>
      </trkpt>
      <trkpt lat="44.3337" lon="2.60607">
        <ele>606</ele>
        <time>2001-01-01T00:00:00Z</time>
      </trkpt>
      <trkpt lat="44.33353" lon="2.60615">
        <ele>609</ele>
        <time>2001-01-01T00:00:00Z</time>
      </trkpt>
      <trkpt lat="44.33312" lon="2.60625">
        <ele>614</ele>
        <time>2001-01-01T00:00:00Z</time>
      </trkpt>
      <trkpt lat="44.33293" lon="2.60635">
        <ele>618</ele>
        <time>2001-01-01T00:00:00Z</time>
      </trkpt>
      <trkpt lat="44.33272" lon="2.60651">
        <ele>621</ele>
        <time>2001-01-01T00:00:00Z</time>
      </trkpt>
      <trkpt lat="44.33264" lon="2.60663">
        <ele>622</ele>
        <time>2001-01-01T00:00:00Z</time>
      </trkpt>
      <trkpt lat="44.33241" lon="2.60698">
        <ele>626</ele>
        <time>2001-01-01T00:00:00Z</time>
      </trkpt>
      <trkpt lat="44.33225" lon="2.60725">
        <ele>628</ele>
        <time>2001-01-01T00:00:00Z</time>
      </trkpt>
      <trkpt lat="44.33223" lon="2.60729">
        <ele>628</ele>
        <time>2001-01-01T00:00:00Z</time>
      </trkpt>
      <trkpt lat="44.3321" lon="2.60702">
        <ele>628</ele>
        <time>2001-01-01T00:00:00Z</time>
      </trkpt>
      <trkpt lat="44.33196" lon="2.60678">
        <ele>627</ele>
        <time>2001-01-01T00:00:00Z</time>
      </trkpt>
      <trkpt lat="44.33172" lon="2.60628">
        <ele>627</ele>
        <time>2001-01-01T00:00:00Z</time>
      </trkpt>
      <trkpt lat="44.33167" lon="2.60585">
        <ele>627</ele>
        <time>2001-01-01T00:00:00Z</time>
      </trkpt>
      <trkpt lat="44.33168" lon="2.60526">
        <ele>628</ele>
        <time>2001-01-01T00:00:00Z</time>
      </trkpt>
      <trkpt lat="44.33157" lon="2.60476">
        <ele>628</ele>
        <time>2001-01-01T00:00:00Z</time>
      </trkpt>
      <trkpt lat="44.33149" lon="2.60402">
        <ele>627</ele>
        <time>2001-01-01T00:00:00Z</time>
      </trkpt>
      <trkpt lat="44.33137" lon="2.60336">
        <ele>627</ele>
        <time>2001-01-01T00:00:00Z</time>
      </trkpt>
      <trkpt lat="44.33135" lon="2.60289">
        <ele>625</ele>
        <time>2001-01-01T00:00:00Z</time>
      </trkpt>
      <trkpt lat="44.33132" lon="2.60272">
        <ele>625</ele>
        <time>2001-01-01T00:00:00Z</time>
      </trkpt>
      <trkpt lat="44.3313" lon="2.60265">
        <ele>625</ele>
        <time>2001-01-01T00:00:00Z</time>
      </trkpt>
      <trkpt lat="44.33116" lon="2.6022">
        <ele>624</ele>
        <time>2001-01-01T00:00:00Z</time>
      </trkpt>
      <trkpt lat="44.33107" lon="2.60202">
        <ele>623</ele>
        <time>2001-01-01T00:00:00Z</time>
      </trkpt>
      <trkpt lat="44.33075" lon="2.60139">
        <ele>622</ele>
        <time>2001-01-01T00:00:00Z</time>
      </trkpt>
      <trkpt lat="44.33064" lon="2.60101">
        <ele>622</ele>
        <time>2001-01-01T00:00:00Z</time>
      </trkpt>
      <trkpt lat="44.33062" lon="2.60087">
        <ele>622</ele>
        <time>2001-01-01T00:00:00Z</time>
      </trkpt>
      <trkpt lat="44.33058" lon="2.60067">
        <ele>622</ele>
        <time>2001-01-01T00:00:00Z</time>
      </trkpt>
      <trkpt lat="44.33061" lon="2.60048">
        <ele>622</ele>
        <time>2001-01-01T00:00:00Z</time>
      </trkpt>
      <trkpt lat="44.33067" lon="2.60028">
        <ele>622</ele>
        <time>2001-01-01T00:00:00Z</time>
      </trkpt>
      <trkpt lat="44.33077" lon="2.59978">
        <ele>621</ele>
        <time>2001-01-01T00:00:00Z</time>
      </trkpt>
      <trkpt lat="44.33078" lon="2.59962">
        <ele>621</ele>
        <time>2001-01-01T00:00:00Z</time>
      </trkpt>
      <trkpt lat="44.3308" lon="2.59932">
        <ele>622</ele>
        <time>2001-01-01T00:00:00Z</time>
      </trkpt>
      <trkpt lat="44.33078" lon="2.59917">
        <ele>622</ele>
        <time>2001-01-01T00:00:00Z</time>
      </trkpt>
      <trkpt lat="44.33034" lon="2.59865">
        <ele>622</ele>
        <time>2001-01-01T00:00:00Z</time>
      </trkpt>
      <trkpt lat="44.33021" lon="2.59847">
        <ele>622</ele>
        <time>2001-01-01T00:00:00Z</time>
      </trkpt>
      <trkpt lat="44.3299" lon="2.59822">
        <ele>620</ele>
        <time>2001-01-01T00:00:00Z</time>
      </trkpt>
      <trkpt lat="44.32963" lon="2.59794">
        <ele>619</ele>
        <time>2001-01-01T00:00:00Z</time>
      </trkpt>
      <trkpt lat="44.32929" lon="2.59738">
        <ele>618</ele>
        <time>2001-01-01T00:00:00Z</time>
      </trkpt>
      <trkpt lat="44.32896" lon="2.59706">
        <ele>617</ele>
        <time>2001-01-01T00:00:00Z</time>
      </trkpt>
      <trkpt lat="44.3287" lon="2.59677">
        <ele>616</ele>
        <time>2001-01-01T00:00:00Z</time>
      </trkpt>
      <trkpt lat="44.3286" lon="2.59663">
        <ele>616</ele>
        <time>2001-01-01T00:00:00Z</time>
      </trkpt>
      <trkpt lat="44.32837" lon="2.59634">
        <ele>615</ele>
        <time>2001-01-01T00:00:00Z</time>
      </trkpt>
      <trkpt lat="44.32827" lon="2.59625">
        <ele>615</ele>
        <time>2001-01-01T00:00:00Z</time>
      </trkpt>
      <trkpt lat="44.32806" lon="2.59614">
        <ele>614</ele>
        <time>2001-01-01T00:00:00Z</time>
      </trkpt>
      <trkpt lat="44.32795" lon="2.59604">
        <ele>614</ele>
        <time>2001-01-01T00:00:00Z</time>
      </trkpt>
      <trkpt lat="44.32748" lon="2.5954">
        <ele>612</ele>
        <time>2001-01-01T00:00:00Z</time>
      </trkpt>
      <trkpt lat="44.32726" lon="2.59514">
        <ele>611</ele>
        <time>2001-01-01T00:00:00Z</time>
      </trkpt>
      <trkpt lat="44.327" lon="2.59493">
        <ele>610</ele>
        <time>2001-01-01T00:00:00Z</time>
      </trkpt>
      <trkpt lat="44.32692" lon="2.59487">
        <ele>609</ele>
        <time>2001-01-01T00:00:00Z</time>
      </trkpt>
      <trkpt lat="44.3268" lon="2.59477">
        <ele>608</ele>
        <time>2001-01-01T00:00:00Z</time>
      </trkpt>
      <trkpt lat="44.32671" lon="2.59467">
        <ele>607</ele>
        <time>2001-01-01T00:00:00Z</time>
      </trkpt>
      <trkpt lat="44.32656" lon="2.59434">
        <ele>607</ele>
        <time>2001-01-01T00:00:00Z</time>
      </trkpt>
      <trkpt lat="44.32647" lon="2.59421">
        <ele>607</ele>
        <time>2001-01-01T00:00:00Z</time>
      </trkpt>
      <trkpt lat="44.3264" lon="2.59405">
        <ele>607</ele>
        <time>2001-01-01T00:00:00Z</time>
      </trkpt>
      <trkpt lat="44.32618" lon="2.59258">
        <ele>606</ele>
        <time>2001-01-01T00:00:00Z</time>
      </trkpt>
      <trkpt lat="44.32617" lon="2.59256">
        <ele>607</ele>
        <time>2001-01-01T00:00:00Z</time>
      </trkpt>
      <trkpt lat="44.32613" lon="2.5924">
        <ele>607</ele>
        <time>2001-01-01T00:00:00Z</time>
      </trkpt>
      <trkpt lat="44.32617" lon="2.59242">
        <ele>607</ele>
        <time>2001-01-01T00:00:00Z</time>
      </trkpt>
      <trkpt lat="44.32624" lon="2.59237">
        <ele>606</ele>
        <time>2001-01-01T00:00:00Z</time>
      </trkpt>
      <trkpt lat="44.32635" lon="2.59223">
        <ele>605</ele>
        <time>2001-01-01T00:00:00Z</time>
      </trkpt>
      <trkpt lat="44.32705" lon="2.59122">
        <ele>602</ele>
        <time>2001-01-01T00:00:00Z</time>
      </trkpt>
      <trkpt lat="44.32734" lon="2.59079">
        <ele>600</ele>
        <time>2001-01-01T00:00:00Z</time>
      </trkpt>
      <trkpt lat="44.3274" lon="2.5907">
        <ele>600</ele>
        <time>2001-01-01T00:00:00Z</time>
      </trkpt>
      <trkpt lat="44.32787" lon="2.58972">
        <ele>596</ele>
        <time>2001-01-01T00:00:00Z</time>
      </trkpt>
      <trkpt lat="44.32804" lon="2.58932">
        <ele>594</ele>
        <time>2001-01-01T00:00:00Z</time>
      </trkpt>
      <trkpt lat="44.32809" lon="2.58923">
        <ele>593</ele>
        <time>2001-01-01T00:00:00Z</time>
      </trkpt>
      <trkpt lat="44.32804" lon="2.58932">
        <ele>594</ele>
        <time>2001-01-01T00:00:00Z</time>
      </trkpt>
      <trkpt lat="44.32843" lon="2.58956">
        <ele>593</ele>
        <time>2001-01-01T00:00:00Z</time>
      </trkpt>
      <trkpt lat="44.32881" lon="2.58979">
        <ele>594</ele>
        <time>2001-01-01T00:00:00Z</time>
      </trkpt>
      <trkpt lat="44.3289" lon="2.58985">
        <ele>594</ele>
        <time>2001-01-01T00:00:00Z</time>
      </trkpt>
      <trkpt lat="44.3289" lon="2.58994">
        <ele>595</ele>
        <time>2001-01-01T00:00:00Z</time>
      </trkpt>
      <trkpt lat="44.3289" lon="2.59001">
        <ele>595</ele>
        <time>2001-01-01T00:00:00Z</time>
      </trkpt>
      <trkpt lat="44.32941" lon="2.59031">
        <ele>595</ele>
        <time>2001-01-01T00:00:00Z</time>
      </trkpt>
      <trkpt lat="44.32945" lon="2.59028">
        <ele>595</ele>
        <time>2001-01-01T00:00:00Z</time>
      </trkpt>
      <trkpt lat="44.32949" lon="2.59021">
        <ele>595</ele>
        <time>2001-01-01T00:00:00Z</time>
      </trkpt>
      <trkpt lat="44.32957" lon="2.59028">
        <ele>594</ele>
        <time>2001-01-01T00:00:00Z</time>
      </trkpt>
      <trkpt lat="44.3296" lon="2.5903">
        <ele>595</ele>
        <time>2001-01-01T00:00:00Z</time>
      </trkpt>
      <trkpt lat="44.33003" lon="2.59072">
        <ele>596</ele>
        <time>2001-01-01T00:00:00Z</time>
      </trkpt>
      <trkpt lat="44.33013" lon="2.59088">
        <ele>597</ele>
        <time>2001-01-01T00:00:00Z</time>
      </trkpt>
      <trkpt lat="44.33025" lon="2.59109">
        <ele>597</ele>
        <time>2001-01-01T00:00:00Z</time>
      </trkpt>
      <trkpt lat="44.3303" lon="2.59111">
        <ele>597</ele>
        <time>2001-01-01T00:00:00Z</time>
      </trkpt>
      <trkpt lat="44.33064" lon="2.59129">
        <ele>598</ele>
        <time>2001-01-01T00:00:00Z</time>
      </trkpt>
    </trkseg>
  </trk>
</gpx>